Wetterdaten: Sonntag, 28.08.2016
Datum Zeit Temp. A. Feuchte A. Luftdruck Regen Wind Richtung Richtung Sonnenschein ET UV Solar Taupunkt Windchill Windben Empfang
28.08.2016 00:00 19,9 C 85 % 1015,5 hPa 0,0 l/m 1,0 km/h (0 Bft) O-NO 64 0 min 0,000 mm 0,0 UV-I 0 W/m 17,3 C 19,9 C 1,6 km/h (1 Bft) 100,00 %
28.08.2016 00:02 19,8 C 85 % 1015,5 hPa 0,0 l/m 0,8 km/h (0 Bft) O-NO 64 0 min 0,000 mm 0,0 UV-I 0 W/m 17,2 C 19,8 C 1,6 km/h (1 Bft) 97,67 %
28.08.2016 00:04 19,8 C 85 % 1015,5 hPa 0,0 l/m 1,5 km/h (1 Bft) O-NO 64 0 min 0,000 mm 0,0 UV-I 0 W/m 17,2 C 19,8 C 3,2 km/h (1 Bft) 100,00 %
28.08.2016 00:06 19,8 C 85 % 1015,5 hPa 0,0 l/m 2,4 km/h (1 Bft) O-NO 64 0 min 0,000 mm 0,0 UV-I 0 W/m 17,2 C 19,8 C 3,2 km/h (1 Bft) 100,00 %
28.08.2016 00:08 19,7 C 86 % 1015,4 hPa 0,0 l/m 2,8 km/h (1 Bft) O-NO 64 0 min 0,000 mm 0,0 UV-I 0 W/m 17,3 C 19,7 C 3,2 km/h (1 Bft) 100,00 %
28.08.2016 00:10 19,6 C 86 % 1015,5 hPa 0,0 l/m 1,8 km/h (1 Bft) O-NO 64 0 min 0,000 mm 0,0 UV-I 0 W/m 17,2 C 19,6 C 3,2 km/h (1 Bft) 97,87 %
28.08.2016 00:12 19,6 C 86 % 1015,5 hPa 0,0 l/m 1,2 km/h (1 Bft) O-NO 64 0 min 0,000 mm 0,0 UV-I 0 W/m 17,2 C 19,6 C 1,6 km/h (1 Bft) 100,00 %
28.08.2016 00:14 19,5 C 87 % 1015,5 hPa 0,0 l/m 0,5 km/h (0 Bft) O-NO 64 0 min 0,000 mm 0,0 UV-I 0 W/m 17,3 C 19,5 C 1,6 km/h (1 Bft) 100,00 %
28.08.2016 00:16 19,5 C 87 % 1015,4 hPa 0,0 l/m 0,7 km/h (0 Bft) O-NO 64 0 min 0,000 mm 0,0 UV-I 0 W/m 17,3 C 19,5 C 1,6 km/h (1 Bft) 100,00 %
28.08.2016 00:18 19,5 C 87 % 1015,4 hPa 0,0 l/m 1,4 km/h (1 Bft) O-NO 64 0 min 0,000 mm 0,0 UV-I 0 W/m 17,3 C 19,5 C 3,2 km/h (1 Bft) 100,00 %
28.08.2016 00:20 19,4 C 86 % 1015,4 hPa 0,0 l/m 1,2 km/h (1 Bft) O-NO 64 0 min 0,000 mm 0,0 UV-I 0 W/m 17,0 C 19,4 C 3,2 km/h (1 Bft) 100,00 %
28.08.2016 00:22 19,4 C 86 % 1015,5 hPa 0,0 l/m 0,6 km/h (0 Bft) O-NO 64 0 min 0,000 mm 0,0 UV-I 0 W/m 17,0 C 19,4 C 1,6 km/h (1 Bft) 97,87 %
28.08.2016 00:24 19,3 C 87 % 1015,5 hPa 0,0 l/m 0,0 km/h (0 Bft) O-NO 64 0 min 0,000 mm 0,0 UV-I 0 W/m 17,1 C 19,3 C 0,0 km/h (0 Bft) 100,00 %
28.08.2016 00:26 19,3 C 87 % 1015,5 hPa 0,0 l/m 0,0 km/h (0 Bft) O-NO 64 0 min 0,000 mm 0,0 UV-I 0 W/m 17,1 C 19,3 C 0,0 km/h (0 Bft) 100,00 %
28.08.2016 00:28 19,2 C 87 % 1015,5 hPa 0,0 l/m 0,0 km/h (0 Bft) O-NO 64 0 min 0,000 mm 0,0 UV-I 0 W/m 17,0 C 19,2 C 0,0 km/h (0 Bft) 100,00 %
28.08.2016 00:30 19,2 C 87 % 1015,5 hPa 0,0 l/m 0,0 km/h (0 Bft) O-NO 64 0 min 0,000 mm 0,0 UV-I 0 W/m 17,0 C 19,2 C 0,0 km/h (0 Bft) 97,87 %
28.08.2016 00:32 19,1 C 87 % 1015,4 hPa 0,0 l/m 0,0 km/h (0 Bft) O-NO 64 0 min 0,000 mm 0,0 UV-I 0 W/m 16,9 C 19,1 C 0,0 km/h (0 Bft) 100,00 %
28.08.2016 00:34 18,9 C 88 % 1015,4 hPa 0,0 l/m 0,0 km/h (0 Bft) O-NO 64 0 min 0,000 mm 0,0 UV-I 0 W/m 16,9 C 18,9 C 1,6 km/h (1 Bft) 100,00 %
28.08.2016 00:36 18,8 C 88 % 1015,4 hPa 0,0 l/m 0,0 km/h (0 Bft) O-NO 64 0 min 0,000 mm 0,0 UV-I 0 W/m 16,8 C 18,8 C 0,0 km/h (0 Bft) 100,00 %
28.08.2016 00:38 18,7 C 88 % 1015,4 hPa 0,0 l/m 0,0 km/h (0 Bft) O-NO 64 0 min 0,000 mm 0,0 UV-I 0 W/m 16,7 C 18,7 C 0,0 km/h (0 Bft) 93,62 %
28.08.2016 00:40 18,7 C 89 % 1015,4 hPa 0,0 l/m 0,0 km/h (0 Bft) O-NO 64 0 min 0,000 mm 0,0 UV-I 0 W/m 16,8 C 18,7 C 0,0 km/h (0 Bft) 100,00 %
28.08.2016 00:42 18,6 C 89 % 1015,4 hPa 0,0 l/m 0,0 km/h (0 Bft) O-NO 64 0 min 0,000 mm 0,0 UV-I 0 W/m 16,7 C 18,6 C 0,0 km/h (0 Bft) 100,00 %
28.08.2016 00:44 18,6 C 89 % 1015,4 hPa 0,0 l/m 0,0 km/h (0 Bft) O-NO 64 0 min 0,000 mm 0,0 UV-I 0 W/m 16,7 C 18,6 C 0,0 km/h (0 Bft) 97,87 %
28.08.2016 00:46 18,6 C 89 % 1015,4 hPa 0,0 l/m 0,0 km/h (0 Bft) O-NO 64 0 min 0,000 mm 0,0 UV-I 0 W/m 16,7 C 18,6 C 0,0 km/h (0 Bft) 95,74 %
28.08.2016 00:48 18,4 C 89 % 1015,4 hPa 0,0 l/m 0,3 km/h (0 Bft) O-NO 64 0 min 0,000 mm 0,0 UV-I 0 W/m 16,6 C 18,4 C 1,6 km/h (1 Bft) 100,00 %
28.08.2016 00:50 18,3 C 89 % 1015,4 hPa 0,0 l/m 1,5 km/h (1 Bft) O-NO 65 0 min 0,000 mm 0,0 UV-I 0 W/m 16,5 C 18,3 C 3,2 km/h (1 Bft) 95,74 %
28.08.2016 00:52 18,2 C 89 % 1015,4 hPa 0,0 l/m 0,7 km/h (0 Bft) O-NO 65 0 min 0,000 mm 0,0 UV-I 0 W/m 16,4 C 18,2 C 1,6 km/h (1 Bft) 97,87 %
28.08.2016 00:54 18,1 C 89 % 1015,4 hPa 0,0 l/m 0,7 km/h (0 Bft) O-NO 65 0 min 0,000 mm 0,0 UV-I 0 W/m 16,3 C 18,1 C 1,6 km/h (1 Bft) 95,74 %
28.08.2016 00:56 18,1 C 90 % 1015,4 hPa 0,0 l/m 0,8 km/h (0 Bft) O-NO 65 0 min 0,000 mm 0,0 UV-I 0 W/m 16,4 C 18,1 C 1,6 km/h (1 Bft) 95,74 %
28.08.2016 00:58 18,1 C 90 % 1015,5 hPa 0,0 l/m 1,4 km/h (1 Bft) O-NO 65 0 min 0,000 mm 0,0 UV-I 0 W/m 16,4 C 18,1 C 3,2 km/h (1 Bft) 97,87 %
28.08.2016 01:00 18,0 C 90 % 1015,4 hPa 0,0 l/m 1,2 km/h (1 Bft) O-NO 65 0 min 0,000 mm 0,0 UV-I 0 W/m 16,3 C 18,0 C 1,6 km/h (1 Bft) 95,74 %
28.08.2016 01:02 18,1 C 91 % 1015,4 hPa 0,0 l/m 1,1 km/h (1 Bft) O-NO 65 0 min 0,000 mm 0,0 UV-I 0 W/m 16,6 C 18,1 C 1,6 km/h (1 Bft) 95,74 %
28.08.2016 01:04 18,1 C 91 % 1015,4 hPa 0,0 l/m 1,1 km/h (1 Bft) O-NO 65 0 min 0,000 mm 0,0 UV-I 0 W/m 16,6 C 18,1 C 1,6 km/h (1 Bft) 97,87 %
28.08.2016 01:06 18,1 C 91 % 1015,3 hPa 0,0 l/m 0,2 km/h (0 Bft) O-NO 65 0 min 0,000 mm 0,0 UV-I 0 W/m 16,6 C 18,1 C 1,6 km/h (1 Bft) 97,87 %
28.08.2016 01:08 18,0 C 90 % 1015,3 hPa 0,0 l/m 0,0 km/h (0 Bft) O-NO 65 0 min 0,000 mm 0,0 UV-I 0 W/m 16,3 C 18,0 C 0,0 km/h (0 Bft) 97,87 %
28.08.2016 01:10 17,9 C 91 % 1015,3 hPa 0,0 l/m 0,0 km/h (0 Bft) O-NO 65 0 min 0,000 mm 0,0 UV-I 0 W/m 16,4 C 17,9 C 0,0 km/h (0 Bft) 94,44 %
28.08.2016 01:12 17,8 C 91 % 1015,3 hPa 0,0 l/m 0,0 km/h (0 Bft) O-NO 65 0 min 0,000 mm 0,0 UV-I 0 W/m 16,3 C 17,8 C 0,0 km/h (0 Bft) 97,87 %
28.08.2016 01:14 17,8 C 91 % 1015,3 hPa 0,0 l/m 1,2 km/h (1 Bft) O-NO 65 0 min 0,000 mm 0,0 UV-I 0 W/m 16,3 C 17,8 C 3,2 km/h (1 Bft) 97,87 %
28.08.2016 01:16 17,8 C 91 % 1015,4 hPa 0,0 l/m 2,0 km/h (1 Bft) O-NO 65 0 min 0,000 mm 0,0 UV-I 0 W/m 16,3 C 17,8 C 3,2 km/h (1 Bft) 98,00 %
28.08.2016 01:18 17,8 C 91 % 1015,4 hPa 0,0 l/m 1,8 km/h (1 Bft) O-NO 65 0 min 0,000 mm 0,0 UV-I 0 W/m 16,3 C 17,8 C 3,2 km/h (1 Bft) 98,00 %
28.08.2016 01:20 17,7 C 91 % 1015,4 hPa 0,0 l/m 2,4 km/h (1 Bft) O-NO 65 0 min 0,000 mm 0,0 UV-I 0 W/m 16,2 C 17,7 C 3,2 km/h (1 Bft) 95,74 %
28.08.2016 01:22 17,7 C 92 % 1015,4 hPa 0,0 l/m 3,3 km/h (1 Bft) SO 130 0 min 0,000 mm 0,0 UV-I 0 W/m 16,4 C 17,7 C 4,8 km/h (1 Bft) 97,87 %
28.08.2016 01:24 17,6 C 92 % 1015,4 hPa 0,0 l/m 2,6 km/h (1 Bft) SO 130 0 min 0,000 mm 0,0 UV-I 0 W/m 16,3 C 17,6 C 3,2 km/h (1 Bft) 97,87 %
28.08.2016 01:26 17,4 C 91 % 1015,3 hPa 0,0 l/m 0,7 km/h (0 Bft) SO 130 0 min 0,000 mm 0,0 UV-I 0 W/m 15,9 C 17,4 C 3,2 km/h (1 Bft) 98,00 %
28.08.2016 01:28 17,3 C 91 % 1015,3 hPa 0,0 l/m 0,7 km/h (0 Bft) SO 130 0 min 0,000 mm 0,0 UV-I 0 W/m 15,8 C 17,3 C 3,2 km/h (1 Bft) 97,87 %
28.08.2016 01:30 17,3 C 92 % 1015,3 hPa 0,0 l/m 0,6 km/h (0 Bft) SO 130 0 min 0,000 mm 0,0 UV-I 0 W/m 16,0 C 17,3 C 1,6 km/h (1 Bft) 100,00 %
28.08.2016 01:32 17,3 C 92 % 1015,3 hPa 0,0 l/m 0,3 km/h (0 Bft) SO 130 0 min 0,000 mm 0,0 UV-I 0 W/m 16,0 C 17,3 C 1,6 km/h (1 Bft) 97,87 %
28.08.2016 01:34 17,3 C 93 % 1015,3 hPa 0,0 l/m 0,0 km/h (0 Bft) SO 130 0 min 0,000 mm 0,0 UV-I 0 W/m 16,2 C 17,3 C 0,0 km/h (0 Bft) 100,00 %
28.08.2016 01:36 17,3 C 93 % 1015,2 hPa 0,0 l/m 0,0 km/h (0 Bft) SO 130 0 min 0,000 mm 0,0 UV-I 0 W/m 16,2 C 17,3 C 0,0 km/h (0 Bft) 100,00 %
28.08.2016 01:38 17,3 C 93 % 1015,2 hPa 0,0 l/m 0,0 km/h (0 Bft) SO 130 0 min 0,000 mm 0,0 UV-I 0 W/m 16,2 C 17,3 C 0,0 km/h (0 Bft) 97,96 %
28.08.2016 01:40 17,4 C 93 % 1015,2 hPa 0,0 l/m 0,0 km/h (0 Bft) SO 130 0 min 0,000 mm 0,0 UV-I 0 W/m 16,3 C 17,4 C 0,0 km/h (0 Bft) 95,74 %
28.08.2016 01:42 17,4 C 93 % 1015,2 hPa 0,0 l/m 0,1 km/h (0 Bft) SO 130 0 min 0,000 mm 0,0 UV-I 0 W/m 16,3 C 17,4 C 1,6 km/h (1 Bft) 100,00 %
28.08.2016 01:44 17,4 C 92 % 1015,2 hPa 0,0 l/m 0,1 km/h (0 Bft) SO 130 0 min 0,000 mm 0,0 UV-I 0 W/m 16,1 C 17,4 C 1,6 km/h (1 Bft) 95,83 %
28.08.2016 01:46 17,4 C 92 % 1015,2 hPa 0,0 l/m 0,0 km/h (0 Bft) SO 130 0 min 0,000 mm 0,0 UV-I 0 W/m 16,1 C 17,4 C 0,0 km/h (0 Bft) 100,00 %
28.08.2016 01:48 17,4 C 92 % 1015,2 hPa 0,0 l/m 0,0 km/h (0 Bft) SO 130 0 min 0,000 mm 0,0 UV-I 0 W/m 16,1 C 17,4 C 0,0 km/h (0 Bft) 100,00 %
28.08.2016 01:50 17,3 C 92 % 1015,2 hPa 0,0 l/m 0,7 km/h (0 Bft) SO 130 0 min 0,000 mm 0,0 UV-I 0 W/m 16,0 C 17,3 C 3,2 km/h (1 Bft) 100,00 %
28.08.2016 01:52 17,3 C 92 % 1015,2 hPa 0,0 l/m 3,3 km/h (1 Bft) SO 130 0 min 0,000 mm 0,0 UV-I 0 W/m 16,0 C 17,3 C 4,8 km/h (1 Bft) 98,00 %
28.08.2016 01:54 17,2 C 92 % 1015,2 hPa 0,0 l/m 1,7 km/h (1 Bft) SO 130 0 min 0,000 mm 0,0 UV-I 0 W/m 15,9 C 17,2 C 3,2 km/h (1 Bft) 100,00 %
28.08.2016 01:56 17,2 C 92 % 1015,2 hPa 0,0 l/m 1,7 km/h (1 Bft) SO 130 0 min 0,000 mm 0,0 UV-I 0 W/m 15,9 C 17,2 C 3,2 km/h (1 Bft) 100,00 %
28.08.2016 01:58 17,0 C 92 % 1015,2 hPa 0,0 l/m 2,3 km/h (1 Bft) SO 141 0 min 0,000 mm 0,0 UV-I 0 W/m 15,7 C 17,0 C 3,2 km/h (1 Bft) 100,00 %
28.08.2016 02:00 17,0 C 93 % 1015,2 hPa 0,0 l/m 3,4 km/h (1 Bft) S-SO 155 0 min 0,000 mm 0,0 UV-I 0 W/m 15,9 C 17,0 C 4,8 km/h (1 Bft) 100,00 %
28.08.2016 02:02 17,1 C 93 % 1015,2 hPa 0,0 l/m 3,5 km/h (1 Bft) S-SO 155 0 min 0,000 mm 0,0 UV-I 0 W/m 16,0 C 17,1 C 4,8 km/h (1 Bft) 97,87 %
28.08.2016 02:04 17,2 C 94 % 1015,2 hPa 0,0 l/m 2,6 km/h (1 Bft) S-SO 155 0 min 0,000 mm 0,0 UV-I 0 W/m 16,2 C 17,2 C 4,8 km/h (1 Bft) 100,00 %
28.08.2016 02:06 17,2 C 94 % 1015,2 hPa 0,0 l/m 3,2 km/h (1 Bft) S-SO 155 0 min 0,000 mm 0,0 UV-I 0 W/m 16,2 C 17,2 C 4,8 km/h (1 Bft) 100,00 %
28.08.2016 02:08 17,1 C 93 % 1015,2 hPa 0,0 l/m 2,6 km/h (1 Bft) S-SO 155 0 min 0,000 mm 0,0 UV-I 0 W/m 16,0 C 17,1 C 4,8 km/h (1 Bft) 100,00 %
28.08.2016 02:10 17,1 C 94 % 1015,1 hPa 0,0 l/m 3,6 km/h (1 Bft) S-SO 165 0 min 0,000 mm 0,0 UV-I 0 W/m 16,1 C 17,1 C 6,4 km/h (2 Bft) 100,00 %
28.08.2016 02:12 16,9 C 93 % 1015,1 hPa 0,0 l/m 2,9 km/h (1 Bft) S-SO 165 0 min 0,000 mm 0,0 UV-I 0 W/m 15,8 C 16,9 C 6,4 km/h (2 Bft) 98,00 %
28.08.2016 02:14 16,8 C 93 % 1015,1 hPa 0,0 l/m 1,6 km/h (1 Bft) S-SO 165 0 min 0,000 mm 0,0 UV-I 0 W/m 15,7 C 16,8 C 3,2 km/h (1 Bft) 100,00 %
28.08.2016 02:16 16,8 C 93 % 1015,1 hPa 0,0 l/m 0,8 km/h (0 Bft) S-SO 165 0 min 0,000 mm 0,0 UV-I 0 W/m 15,7 C 16,8 C 1,6 km/h (1 Bft) 100,00 %
28.08.2016 02:18 16,8 C 94 % 1015,1 hPa 0,0 l/m 2,4 km/h (1 Bft) S-SO 165 0 min 0,000 mm 0,0 UV-I 0 W/m 15,8 C 16,8 C 3,2 km/h (1 Bft) 100,00 %
28.08.2016 02:20 16,9 C 94 % 1015,1 hPa 0,0 l/m 0,4 km/h (0 Bft) S-SO 165 0 min 0,000 mm 0,0 UV-I 0 W/m 15,9 C 16,9 C 1,6 km/h (1 Bft) 100,00 %
28.08.2016 02:22 16,9 C 94 % 1015,1 hPa 0,0 l/m 1,5 km/h (1 Bft) S-SO 165 0 min 0,000 mm 0,0 UV-I 0 W/m 15,9 C 16,9 C 3,2 km/h (1 Bft) 100,00 %
28.08.2016 02:24 17,0 C 94 % 1015,1 hPa 0,0 l/m 3,1 km/h (1 Bft) S-SO 165 0 min 0,000 mm 0,0 UV-I 0 W/m 16,0 C 17,0 C 6,4 km/h (2 Bft) 100,00 %
28.08.2016 02:26 17,1 C 94 % 1015,1 hPa 0,0 l/m 3,1 km/h (1 Bft) S-SO 165 0 min 0,000 mm 0,0 UV-I 0 W/m 16,1 C 17,1 C 6,4 km/h (2 Bft) 100,00 %
28.08.2016 02:28 17,1 C 94 % 1015,0 hPa 0,0 l/m 1,1 km/h (1 Bft) S-SO 165 0 min 0,000 mm 0,0 UV-I 0 W/m 16,1 C 17,1 C 3,2 km/h (1 Bft) 98,00 %
28.08.2016 02:30 17,1 C 94 % 1015,0 hPa 0,0 l/m 0,0 km/h (0 Bft) S-SO 165 0 min 0,000 mm 0,0 UV-I 0 W/m 16,1 C 17,1 C 1,6 km/h (1 Bft) 95,74 %
28.08.2016 02:32 17,1 C 94 % 1015,0 hPa 0,0 l/m 0,1 km/h (0 Bft) S-SO 165 0 min 0,000 mm 0,0 UV-I 0 W/m 16,1 C 17,1 C 1,6 km/h (1 Bft) 97,87 %
28.08.2016 02:34 17,1 C 94 % 1015,1 hPa 0,0 l/m 0,0 km/h (0 Bft) S-SO 165 0 min 0,000 mm 0,0 UV-I 0 W/m 16,1 C 17,1 C 0,0 km/h (0 Bft) 100,00 %
28.08.2016 02:36 17,1 C 94 % 1015,1 hPa 0,0 l/m 0,0 km/h (0 Bft) S-SO 165 0 min 0,000 mm 0,0 UV-I 0 W/m 16,1 C 17,1 C 0,0 km/h (0 Bft) 100,00 %
28.08.2016 02:38 17,1 C 94 % 1015,1 hPa 0,0 l/m 0,1 km/h (0 Bft) S-SO 165 0 min 0,000 mm 0,0 UV-I 0 W/m 16,1 C 17,1 C 1,6 km/h (1 Bft) 97,87 %
28.08.2016 02:40 17,2 C 94 % 1015,1 hPa 0,0 l/m 1,2 km/h (1 Bft) S-SO 165 0 min 0,000 mm 0,0 UV-I 0 W/m 16,2 C 17,2 C 3,2 km/h (1 Bft) 100,00 %
28.08.2016 02:42 17,2 C 94 % 1015,0 hPa 0,0 l/m 1,0 km/h (0 Bft) S-SO 165 0 min 0,000 mm 0,0 UV-I 0 W/m 16,2 C 17,2 C 3,2 km/h (1 Bft) 100,00 %
28.08.2016 02:44 17,2 C 94 % 1015,0 hPa 0,0 l/m 0,1 km/h (0 Bft) S-SO 165 0 min 0,000 mm 0,0 UV-I 0 W/m 16,2 C 17,2 C 1,6 km/h (1 Bft) 97,87 %
28.08.2016 02:46 17,2 C 93 % 1014,9 hPa 0,0 l/m 0,2 km/h (0 Bft) S-SO 165 0 min 0,000 mm 0,0 UV-I 0 W/m 16,1 C 17,2 C 1,6 km/h (1 Bft) 100,00 %
28.08.2016 02:48 17,1 C 93 % 1015,0 hPa 0,0 l/m 0,0 km/h (0 Bft) S-SO 165 0 min 0,000 mm 0,0 UV-I 0 W/m 16,0 C 17,1 C 0,0 km/h (0 Bft) 100,00 %
28.08.2016 02:50 17,1 C 94 % 1015,0 hPa 0,0 l/m 1,5 km/h (1 Bft) S-SO 165 0 min 0,000 mm 0,0 UV-I 0 W/m 16,1 C 17,1 C 3,2 km/h (1 Bft) 97,87 %
28.08.2016 02:52 17,1 C 94 % 1015,1 hPa 0,0 l/m 3,2 km/h (1 Bft) S-SO 165 0 min 0,000 mm 0,0 UV-I 0 W/m 16,1 C 17,1 C 6,4 km/h (2 Bft) 97,87 %
28.08.2016 02:54 17,0 C 93 % 1015,1 hPa 0,0 l/m 3,3 km/h (1 Bft) S-SO 165 0 min 0,000 mm 0,0 UV-I 0 W/m 15,9 C 17,0 C 6,4 km/h (2 Bft) 95,74 %
28.08.2016 02:56 16,8 C 93 % 1015,2 hPa 0,0 l/m 4,0 km/h (1 Bft) S 171 0 min 0,000 mm 0,0 UV-I 0 W/m 15,7 C 16,8 C 6,4 km/h (2 Bft) 94,29 %
28.08.2016 02:58 16,7 C 93 % 1015,2 hPa 0,0 l/m 4,5 km/h (1 Bft) S 171 0 min 0,000 mm 0,0 UV-I 0 W/m 15,6 C 16,7 C 6,4 km/h (2 Bft) 97,92 %
28.08.2016 03:00 16,6 C 93 % 1015,2 hPa 0,0 l/m 3,4 km/h (1 Bft) S 171 0 min 0,000 mm 0,0 UV-I 0 W/m 15,5 C 16,6 C 6,4 km/h (2 Bft) 95,74 %
28.08.2016 03:02 16,5 C 93 % 1015,3 hPa 0,0 l/m 4,1 km/h (1 Bft) S 186 0 min 0,000 mm 0,0 UV-I 0 W/m 15,4 C 16,5 C 6,4 km/h (2 Bft) 96,00 %
28.08.2016 03:04 16,6 C 94 % 1015,3 hPa 0,0 l/m 4,1 km/h (1 Bft) S-SW 204 0 min 0,000 mm 0,0 UV-I 0 W/m 15,6 C 16,6 C 6,4 km/h (2 Bft) 93,62 %
28.08.2016 03:06 16,7 C 95 % 1015,3 hPa 0,0 l/m 2,1 km/h (1 Bft) S-SW 204 0 min 0,000 mm 0,0 UV-I 0 W/m 15,9 C 16,7 C 4,8 km/h (1 Bft) 98,00 %
28.08.2016 03:08 16,6 C 94 % 1015,1 hPa 0,0 l/m 2,7 km/h (1 Bft) S 173 0 min 0,000 mm 0,0 UV-I 0 W/m 15,6 C 16,6 C 4,8 km/h (1 Bft) 98,00 %
28.08.2016 03:10 16,5 C 94 % 1015,1 hPa 0,0 l/m 3,8 km/h (1 Bft) S 173 0 min 0,000 mm 0,0 UV-I 0 W/m 15,5 C 16,5 C 4,8 km/h (1 Bft) 97,87 %
28.08.2016 03:12 16,5 C 95 % 1015,1 hPa 0,0 l/m 3,3 km/h (1 Bft) S 173 0 min 0,000 mm 0,0 UV-I 0 W/m 15,7 C 16,5 C 4,8 km/h (1 Bft) 97,87 %
28.08.2016 03:14 16,6 C 95 % 1015,1 hPa 0,0 l/m 0,3 km/h (0 Bft) S 173 0 min 0,000 mm 0,0 UV-I 0 W/m 15,8 C 16,6 C 3,2 km/h (1 Bft) 95,74 %
28.08.2016 03:16 16,7 C 95 % 1015,1 hPa 0,0 l/m 0,3 km/h (0 Bft) S 173 0 min 0,000 mm 0,0 UV-I 0 W/m 15,9 C 16,7 C 1,6 km/h (1 Bft) 97,87 %
28.08.2016 03:18 16,7 C 95 % 1015,1 hPa 0,0 l/m 2,0 km/h (1 Bft) S 173 0 min 0,000 mm 0,0 UV-I 0 W/m 15,9 C 16,7 C 3,2 km/h (1 Bft) 97,87 %
28.08.2016 03:20 16,6 C 95 % 1015,0 hPa 0,0 l/m 2,1 km/h (1 Bft) S 173 0 min 0,000 mm 0,0 UV-I 0 W/m 15,8 C 16,6 C 3,2 km/h (1 Bft) 95,74 %
28.08.2016 03:22 16,6 C 95 % 1015,1 hPa 0,0 l/m 1,5 km/h (1 Bft) S 173 0 min 0,000 mm 0,0 UV-I 0 W/m 15,8 C 16,6 C 3,2 km/h (1 Bft) 95,74 %
28.08.2016 03:24 16,7 C 95 % 1015,1 hPa 0,0 l/m 0,0 km/h (0 Bft) S 173 0 min 0,000 mm 0,0 UV-I 0 W/m 15,9 C 16,7 C 0,0 km/h (0 Bft) 95,74 %
28.08.2016 03:26 16,7 C 95 % 1015,0 hPa 0,0 l/m 0,0 km/h (0 Bft) S 173 0 min 0,000 mm 0,0 UV-I 0 W/m 15,9 C 16,7 C 0,0 km/h (0 Bft) 100,00 %
28.08.2016 03:28 16,8 C 95 % 1015,1 hPa 0,0 l/m 1,2 km/h (1 Bft) S 173 0 min 0,000 mm 0,0 UV-I 0 W/m 16,0 C 16,8 C 3,2 km/h (1 Bft) 97,87 %
28.08.2016 03:30 16,7 C 95 % 1015,1 hPa 0,0 l/m 0,5 km/h (0 Bft) S 173 0 min 0,000 mm 0,0 UV-I 0 W/m 15,9 C 16,7 C 1,6 km/h (1 Bft) 97,87 %
28.08.2016 03:32 16,7 C 94 % 1015,1 hPa 0,0 l/m 1,2 km/h (1 Bft) S 173 0 min 0,000 mm 0,0 UV-I 0 W/m 15,7 C 16,7 C 3,2 km/h (1 Bft) 100,00 %
28.08.2016 03:34 16,7 C 94 % 1015,2 hPa 0,0 l/m 3,6 km/h (1 Bft) S 191 0 min 0,000 mm 0,0 UV-I 0 W/m 15,7 C 16,7 C 4,8 km/h (1 Bft) 97,87 %
28.08.2016 03:36 16,6 C 94 % 1015,1 hPa 0,0 l/m 2,5 km/h (1 Bft) S 191 0 min 0,000 mm 0,0 UV-I 0 W/m 15,6 C 16,6 C 4,8 km/h (1 Bft) 97,87 %
28.08.2016 03:38 16,4 C 94 % 1015,1 hPa 0,0 l/m 0,0 km/h (0 Bft) S 191 0 min 0,000 mm 0,0 UV-I 0 W/m 15,4 C 16,4 C 1,6 km/h (1 Bft) 100,00 %
28.08.2016 03:40 16,3 C 94 % 1015,1 hPa 0,0 l/m 0,1 km/h (0 Bft) S 191 0 min 0,000 mm 0,0 UV-I 0 W/m 15,3 C 16,3 C 1,6 km/h (1 Bft) 100,00 %
28.08.2016 03:42 16,3 C 94 % 1015,2 hPa 0,0 l/m 1,7 km/h (1 Bft) S 191 0 min 0,000 mm 0,0 UV-I 0 W/m 15,3 C 16,3 C 3,2 km/h (1 Bft) 100,00 %
28.08.2016 03:44 16,3 C 94 % 1015,2 hPa 0,0 l/m 2,8 km/h (1 Bft) S 191 0 min 0,000 mm 0,0 UV-I 0 W/m 15,3 C 16,3 C 4,8 km/h (1 Bft) 100,00 %
28.08.2016 03:46 16,3 C 94 % 1015,2 hPa 0,0 l/m 2,2 km/h (1 Bft) S 191 0 min 0,000 mm 0,0 UV-I 0 W/m 15,3 C 16,3 C 3,2 km/h (1 Bft) 97,87 %
28.08.2016 03:48 16,3 C 95 % 1015,1 hPa 0,0 l/m 1,6 km/h (1 Bft) S 191 0 min 0,000 mm 0,0 UV-I 0 W/m 15,5 C 16,3 C 3,2 km/h (1 Bft) 100,00 %
28.08.2016 03:50 16,3 C 95 % 1015,2 hPa 0,0 l/m 0,5 km/h (0 Bft) S 191 0 min 0,000 mm 0,0 UV-I 0 W/m 15,5 C 16,3 C 1,6 km/h (1 Bft) 98,00 %
28.08.2016 03:52 16,3 C 95 % 1015,2 hPa 0,0 l/m 3,1 km/h (1 Bft) S-SW 196 0 min 0,000 mm 0,0 UV-I 0 W/m 15,5 C 16,3 C 4,8 km/h (1 Bft) 100,00 %
28.08.2016 03:54 16,3 C 95 % 1015,2 hPa 0,0 l/m 3,9 km/h (1 Bft) W-SW 243 0 min 0,000 mm 0,0 UV-I 0 W/m 15,5 C 16,3 C 6,4 km/h (2 Bft) 100,00 %
28.08.2016 03:56 16,3 C 95 % 1015,2 hPa 0,0 l/m 1,9 km/h (1 Bft) W-SW 243 0 min 0,000 mm 0,0 UV-I 0 W/m 15,5 C 16,3 C 3,2 km/h (1 Bft) 100,00 %
28.08.2016 03:58 16,3 C 95 % 1015,2 hPa 0,0 l/m 0,9 km/h (0 Bft) W-SW 240 0 min 0,000 mm 0,0 UV-I 0 W/m 15,5 C 16,3 C 1,6 km/h (1 Bft) 100,00 %
28.08.2016 04:00 16,2 C 95 % 1015,1 hPa 0,0 l/m 1,4 km/h (1 Bft) S-SW 198 0 min 0,000 mm 0,0 UV-I 0 W/m 15,4 C 16,2 C 3,2 km/h (1 Bft) 97,87 %
28.08.2016 04:02 16,2 C 95 % 1015,1 hPa 0,0 l/m 3,0 km/h (1 Bft) S 179 0 min 0,000 mm 0,0 UV-I 0 W/m 15,4 C 16,2 C 4,8 km/h (1 Bft) 100,00 %
28.08.2016 04:04 16,2 C 95 % 1015,2 hPa 0,0 l/m 0,6 km/h (0 Bft) S 179 0 min 0,000 mm 0,0 UV-I 0 W/m 15,4 C 16,2 C 1,6 km/h (1 Bft) 100,00 %
28.08.2016 04:06 16,2 C 95 % 1015,2 hPa 0,0 l/m 0,2 km/h (0 Bft) S 179 0 min 0,000 mm 0,0 UV-I 0 W/m 15,4 C 16,2 C 1,6 km/h (1 Bft) 97,87 %
28.08.2016 04:08 16,2 C 95 % 1015,2 hPa 0,0 l/m 2,5 km/h (1 Bft) S 190 0 min 0,000 mm 0,0 UV-I 0 W/m 15,4 C 16,2 C 4,8 km/h (1 Bft) 100,00 %
28.08.2016 04:10 16,3 C 96 % 1015,2 hPa 0,0 l/m 3,7 km/h (1 Bft) S-SW 195 0 min 0,000 mm 0,0 UV-I 0 W/m 15,7 C 16,3 C 4,8 km/h (1 Bft) 100,00 %
28.08.2016 04:12 16,3 C 96 % 1015,2 hPa 0,0 l/m 3,4 km/h (1 Bft) S-SW 195 0 min 0,000 mm 0,0 UV-I 0 W/m 15,7 C 16,3 C 6,4 km/h (2 Bft) 100,00 %
28.08.2016 04:14 16,4 C 96 % 1015,1 hPa 0,0 l/m 2,2 km/h (1 Bft) S-SW 193 0 min 0,000 mm 0,0 UV-I 0 W/m 15,8 C 16,4 C 4,8 km/h (1 Bft) 100,00 %
28.08.2016 04:16 16,4 C 95 % 1015,1 hPa 0,0 l/m 0,3 km/h (0 Bft) S-SW 193 0 min 0,000 mm 0,0 UV-I 0 W/m 15,6 C 16,4 C 1,6 km/h (1 Bft) 100,00 %
28.08.2016 04:18 16,3 C 95 % 1015,1 hPa 0,0 l/m 0,5 km/h (0 Bft) S-SW 193 0 min 0,000 mm 0,0 UV-I 0 W/m 15,5 C 16,3 C 1,6 km/h (1 Bft) 100,00 %
28.08.2016 04:20 16,2 C 95 % 1015,1 hPa 0,0 l/m 0,8 km/h (0 Bft) S-SW 193 0 min 0,000 mm 0,0 UV-I 0 W/m 15,4 C 16,2 C 1,6 km/h (1 Bft) 100,00 %
28.08.2016 04:22 16,3 C 96 % 1015,1 hPa 0,0 l/m 0,8 km/h (0 Bft) S-SW 193 0 min 0,000 mm 0,0 UV-I 0 W/m 15,7 C 16,3 C 3,2 km/h (1 Bft) 100,00 %
28.08.2016 04:24 16,4 C 96 % 1015,0 hPa 0,0 l/m 0,5 km/h (0 Bft) S-SW 193 0 min 0,000 mm 0,0 UV-I 0 W/m 15,8 C 16,4 C 1,6 km/h (1 Bft) 97,44 %
28.08.2016 04:26 16,5 C 96 % 1015,1 hPa 0,0 l/m 0,4 km/h (0 Bft) S-SW 193 0 min 0,000 mm 0,0 UV-I 0 W/m 15,9 C 16,5 C 1,6 km/h (1 Bft) 100,00 %
28.08.2016 04:28 16,6 C 96 % 1015,1 hPa 0,0 l/m 0,5 km/h (0 Bft) S-SW 193 0 min 0,000 mm 0,0 UV-I 0 W/m 16,0 C 16,6 C 1,6 km/h (1 Bft) 100,00 %
28.08.2016 04:30 16,6 C 96 % 1015,1 hPa 0,0 l/m 0,8 km/h (0 Bft) S-SW 193 0 min 0,000 mm 0,0 UV-I 0 W/m 16,0 C 16,6 C 1,6 km/h (1 Bft) 100,00 %
28.08.2016 04:32 16,5 C 96 % 1015,1 hPa 0,0 l/m 0,0 km/h (0 Bft) S-SW 193 0 min 0,000 mm 0,0 UV-I 0 W/m 15,9 C 16,5 C 1,6 km/h (1 Bft) 98,00 %
28.08.2016 04:34 16,5 C 96 % 1015,1 hPa 0,0 l/m 0,0 km/h (0 Bft) S-SW 193 0 min 0,000 mm 0,0 UV-I 0 W/m 15,9 C 16,5 C 0,0 km/h (0 Bft) 95,83 %
28.08.2016 04:36 16,4 C 96 % 1015,1 hPa 0,0 l/m 1,4 km/h (1 Bft) S-SW 193 0 min 0,000 mm 0,0 UV-I 0 W/m 15,8 C 16,4 C 3,2 km/h (1 Bft) 97,87 %
28.08.2016 04:38 16,3 C 95 % 1015,2 hPa 0,0 l/m 1,9 km/h (1 Bft) S-SW 193 0 min 0,000 mm 0,0 UV-I 0 W/m 15,5 C 16,3 C 3,2 km/h (1 Bft) 100,00 %
28.08.2016 04:40 16,2 C 95 % 1015,2 hPa 0,0 l/m 0,7 km/h (0 Bft) S-SW 193 0 min 0,000 mm 0,0 UV-I 0 W/m 15,4 C 16,2 C 1,6 km/h (1 Bft) 100,00 %
28.08.2016 04:42 16,1 C 95 % 1015,1 hPa 0,0 l/m 0,0 km/h (0 Bft) S-SW 193 0 min 0,000 mm 0,0 UV-I 0 W/m 15,3 C 16,1 C 0,0 km/h (0 Bft) 100,00 %
28.08.2016 04:44 16,2 C 95 % 1015,2 hPa 0,0 l/m 0,5 km/h (0 Bft) S-SW 193 0 min 0,000 mm 0,0 UV-I 0 W/m 15,4 C 16,2 C 1,6 km/h (1 Bft) 95,92 %
28.08.2016 04:46 16,2 C 95 % 1015,2 hPa 0,0 l/m 1,0 km/h (0 Bft) S-SW 193 0 min 0,000 mm 0,0 UV-I 0 W/m 15,4 C 16,2 C 1,6 km/h (1 Bft) 96,00 %
28.08.2016 04:48 16,2 C 95 % 1015,2 hPa 0,0 l/m 0,5 km/h (0 Bft) S-SW 193 0 min 0,000 mm 0,0 UV-I 0 W/m 15,4 C 16,2 C 1,6 km/h (1 Bft) 100,00 %
28.08.2016 04:50 16,1 C 95 % 1015,2 hPa 0,0 l/m 0,0 km/h (0 Bft) S-SW 193 0 min 0,000 mm 0,0 UV-I 0 W/m 15,3 C 16,1 C 0,0 km/h (0 Bft) 100,00 %
28.08.2016 04:52 16,1 C 95 % 1015,1 hPa 0,0 l/m 0,0 km/h (0 Bft) S-SW 193 0 min 0,000 mm 0,0 UV-I 0 W/m 15,3 C 16,1 C 0,0 km/h (0 Bft) 100,00 %
28.08.2016 04:54 16,1 C 95 % 1015,1 hPa 0,0 l/m 0,0 km/h (0 Bft) S-SW 193 0 min 0,000 mm 0,0 UV-I 0 W/m 15,3 C 16,1 C 0,0 km/h (0 Bft) 97,87 %
28.08.2016 04:56 16,1 C 95 % 1015,1 hPa 0,0 l/m 0,5 km/h (0 Bft) S-SW 193 0 min 0,000 mm 0,0 UV-I 0 W/m 15,3 C 16,1 C 1,6 km/h (1 Bft) 95,74 %
28.08.2016 04:58 16,0 C 95 % 1015,0 hPa 0,0 l/m 1,4 km/h (1 Bft) S-SW 193 0 min 0,000 mm 0,0 UV-I 0 W/m 15,2 C 16,0 C 3,2 km/h (1 Bft) 95,74 %
28.08.2016 05:00 16,0 C 95 % 1015,0 hPa 0,0 l/m 0,2 km/h (0 Bft) S-SW 193 0 min 0,000 mm 0,0 UV-I 0 W/m 15,2 C 16,0 C 1,6 km/h (1 Bft) 95,83 %
28.08.2016 05:02 16,0 C 95 % 1015,0 hPa 0,0 l/m 0,4 km/h (0 Bft) S-SW 193 0 min 0,000 mm 0,0 UV-I 0 W/m 15,2 C 16,0 C 1,6 km/h (1 Bft) 95,74 %
28.08.2016 05:04 15,9 C 95 % 1015,0 hPa 0,0 l/m 1,1 km/h (1 Bft) S-SW 193 0 min 0,000 mm 0,0 UV-I 0 W/m 15,1 C 15,9 C 3,2 km/h (1 Bft) 95,74 %
28.08.2016 05:06 15,9 C 95 % 1015,0 hPa 0,0 l/m 1,9 km/h (1 Bft) S 189 0 min 0,000 mm 0,0 UV-I 0 W/m 15,1 C 15,9 C 4,8 km/h (1 Bft) 97,87 %
28.08.2016 05:08 16,0 C 95 % 1015,0 hPa 0,0 l/m 2,0 km/h (1 Bft) S 189 0 min 0,000 mm 0,0 UV-I 0 W/m 15,2 C 16,0 C 3,2 km/h (1 Bft) 93,62 %
28.08.2016 05:10 16,1 C 95 % 1015,1 hPa 0,0 l/m 2,6 km/h (1 Bft) S 189 0 min 0,000 mm 0,0 UV-I 0 W/m 15,3 C 16,1 C 4,8 km/h (1 Bft) 97,87 %
28.08.2016 05:12 16,1 C 95 % 1015,0 hPa 0,0 l/m 1,1 km/h (1 Bft) S 189 0 min 0,000 mm 0,0 UV-I 0 W/m 15,3 C 16,1 C 3,2 km/h (1 Bft) 97,87 %
28.08.2016 05:14 16,1 C 95 % 1015,0 hPa 0,0 l/m 1,4 km/h (1 Bft) S 189 0 min 0,000 mm 0,0 UV-I 0 W/m 15,3 C 16,1 C 3,2 km/h (1 Bft) 93,62 %
28.08.2016 05:16 16,1 C 96 % 1015,0 hPa 0,0 l/m 2,1 km/h (1 Bft) S 189 0 min 0,000 mm 0,0 UV-I 0 W/m 15,5 C 16,1 C 3,2 km/h (1 Bft) 97,87 %
28.08.2016 05:18 16,1 C 95 % 1015,0 hPa 0,0 l/m 1,0 km/h (0 Bft) S 189 0 min 0,000 mm 0,0 UV-I 0 W/m 15,3 C 16,1 C 1,6 km/h (1 Bft) 97,87 %
28.08.2016 05:20 16,0 C 95 % 1015,0 hPa 0,0 l/m 0,2 km/h (0 Bft) S 189 0 min 0,000 mm 0,0 UV-I 0 W/m 15,2 C 16,0 C 1,6 km/h (1 Bft) 96,00 %
28.08.2016 05:22 16,0 C 95 % 1015,0 hPa 0,0 l/m 0,0 km/h (0 Bft) S 189 0 min 0,000 mm 0,0 UV-I 0 W/m 15,2 C 16,0 C 1,6 km/h (1 Bft) 97,87 %
28.08.2016 05:24 15,9 C 95 % 1014,9 hPa 0,0 l/m 0,7 km/h (0 Bft) S 189 0 min 0,000 mm 0,0 UV-I 0 W/m 15,1 C 15,9 C 3,2 km/h (1 Bft) 97,30 %
28.08.2016 05:26 16,0 C 96 % 1014,9 hPa 0,0 l/m 1,7 km/h (1 Bft) S 189 0 min 0,000 mm 0,0 UV-I 0 W/m 15,4 C 16,0 C 3,2 km/h (1 Bft) 100,00 %
28.08.2016 05:28 16,1 C 96 % 1014,9 hPa 0,0 l/m 0,5 km/h (0 Bft) S 189 0 min 0,000 mm 0,0 UV-I 0 W/m 15,5 C 16,1 C 1,6 km/h (1 Bft) 100,00 %
28.08.2016 05:30 16,1 C 96 % 1014,9 hPa 0,0 l/m 0,4 km/h (0 Bft) S 189 0 min 0,000 mm 0,0 UV-I 0 W/m 15,5 C 16,1 C 1,6 km/h (1 Bft) 100,00 %
28.08.2016 05:32 16,1 C 96 % 1015,0 hPa 0,0 l/m 0,0 km/h (0 Bft) S 189 0 min 0,000 mm 0,0 UV-I 0 W/m 15,5 C 16,1 C 1,6 km/h (1 Bft) 97,92 %
28.08.2016 05:34 16,1 C 95 % 1015,0 hPa 0,0 l/m 0,7 km/h (0 Bft) S 189 0 min 0,000 mm 0,0 UV-I 0 W/m 15,3 C 16,1 C 1,6 km/h (1 Bft) 100,00 %
28.08.2016 05:36 15,9 C 95 % 1015,0 hPa 0,0 l/m 0,0 km/h (0 Bft) S 189 0 min 0,000 mm 0,0 UV-I 0 W/m 15,1 C 15,9 C 0,0 km/h (0 Bft) 100,00 %
28.08.2016 05:38 15,8 C 95 % 1015,0 hPa 0,0 l/m 0,0 km/h (0 Bft) S 189 0 min 0,000 mm 0,0 UV-I 0 W/m 15,0 C 15,8 C 0,0 km/h (0 Bft) 100,00 %
28.08.2016 05:40 15,8 C 95 % 1014,9 hPa 0,0 l/m 0,5 km/h (0 Bft) S 189 0 min 0,000 mm 0,0 UV-I 0 W/m 15,0 C 15,8 C 1,6 km/h (1 Bft) 97,92 %
28.08.2016 05:42 15,7 C 95 % 1014,9 hPa 0,0 l/m 1,1 km/h (1 Bft) S 189 0 min 0,000 mm 0,0 UV-I 0 W/m 14,9 C 15,7 C 1,6 km/h (1 Bft) 100,00 %
28.08.2016 05:44 15,7 C 95 % 1014,9 hPa 0,0 l/m 0,8 km/h (0 Bft) S 189 0 min 0,000 mm 0,0 UV-I 0 W/m 14,9 C 15,7 C 1,6 km/h (1 Bft) 100,00 %
28.08.2016 05:46 15,7 C 95 % 1014,9 hPa 0,0 l/m 0,0 km/h (0 Bft) S 189 0 min 0,000 mm 0,0 UV-I 0 W/m 14,9 C 15,7 C 0,0 km/h (0 Bft) 100,00 %
28.08.2016 05:48 15,8 C 96 % 1014,9 hPa 0,0 l/m 0,3 km/h (0 Bft) S 189 0 min 0,000 mm 0,0 UV-I 0 W/m 15,2 C 15,8 C 1,6 km/h (1 Bft) 100,00 %
28.08.2016 05:50 15,8 C 96 % 1014,9 hPa 0,0 l/m 0,0 km/h (0 Bft) S 189 0 min 0,000 mm 0,0 UV-I 0 W/m 15,2 C 15,8 C 0,0 km/h (0 Bft) 100,00 %
28.08.2016 05:52 15,8 C 96 % 1014,9 hPa 0,0 l/m 0,0 km/h (0 Bft) S 189 0 min 0,000 mm 0,0 UV-I 0 W/m 15,2 C 15,8 C 0,0 km/h (0 Bft) 100,00 %
28.08.2016 05:54 15,7 C 95 % 1014,9 hPa 0,0 l/m 0,0 km/h (0 Bft) S 189 0 min 0,000 mm 0,0 UV-I 0 W/m 14,9 C 15,7 C 0,0 km/h (0 Bft) 97,87 %
28.08.2016 05:56 15,7 C 95 % 1014,9 hPa 0,0 l/m 0,0 km/h (0 Bft) S 189 0 min 0,000 mm 0,0 UV-I 0 W/m 14,9 C 15,7 C 0,0 km/h (0 Bft) 97,87 %
28.08.2016 05:58 15,8 C 96 % 1014,9 hPa 0,0 l/m 0,0 km/h (0 Bft) S 189 0 min 0,000 mm 0,0 UV-I 0 W/m 15,2 C 15,8 C 1,6 km/h (1 Bft) 100,00 %
28.08.2016 06:00 15,8 C 96 % 1014,9 hPa 0,0 l/m 0,0 km/h (0 Bft) S 189 0 min 0,000 mm 0,0 UV-I 0 W/m 15,2 C 15,8 C 1,6 km/h (1 Bft) 100,00 %
28.08.2016 06:02 15,7 C 95 % 1014,9 hPa 0,0 l/m 0,0 km/h (0 Bft) S 189 0 min 0,000 mm 0,0 UV-I 0 W/m 14,9 C 15,7 C 0,0 km/h (0 Bft) 97,87 %
28.08.2016 06:04 15,8 C 96 % 1014,9 hPa 0,0 l/m 0,7 km/h (0 Bft) S 189 0 min 0,000 mm 0,0 UV-I 0 W/m 15,2 C 15,8 C 1,6 km/h (1 Bft) 100,00 %
28.08.2016 06:06 15,7 C 95 % 1014,8 hPa 0,0 l/m 2,8 km/h (1 Bft) S 189 0 min 0,000 mm 0,0 UV-I 0 W/m 14,9 C 15,7 C 4,8 km/h (1 Bft) 100,00 %
28.08.2016 06:08 15,7 C 96 % 1014,8 hPa 0,0 l/m 1,3 km/h (1 Bft) S 189 0 min 0,000 mm 0,0 UV-I 0 W/m 15,1 C 15,7 C 3,2 km/h (1 Bft) 96,00 %
28.08.2016 06:10 15,7 C 96 % 1014,9 hPa 0,0 l/m 0,1 km/h (0 Bft) S 189 0 min 0,000 mm 0,0 UV-I 0 W/m 15,1 C 15,7 C 1,6 km/h (1 Bft) 97,87 %
28.08.2016 06:12 15,7 C 96 % 1014,9 hPa 0,0 l/m 1,2 km/h (1 Bft) S 189 0 min 0,000 mm 0,0 UV-I 0 W/m 15,1 C 15,7 C 3,2 km/h (1 Bft) 100,00 %
28.08.2016 06:14 15,7 C 96 % 1014,9 hPa 0,0 l/m 2,0 km/h (1 Bft) S 189 0 min 0,000 mm 0,0 UV-I 2 W/m 15,1 C 15,7 C 3,2 km/h (1 Bft) 97,92 %
28.08.2016 06:16 15,7 C 95 % 1014,9 hPa 0,0 l/m 1,0 km/h (0 Bft) S 189 0 min 0,000 mm 0,0 UV-I 5 W/m 14,9 C 15,7 C 3,2 km/h (1 Bft) 100,00 %
28.08.2016 06:18 15,6 C 96 % 1015,0 hPa 0,0 l/m 0,2 km/h (0 Bft) S 189 0 min 0,000 mm 0,0 UV-I 5 W/m 15,0 C 15,6 C 1,6 km/h (1 Bft) 100,00 %
28.08.2016 06:20 15,6 C 96 % 1015,1 hPa 0,0 l/m 2,5 km/h (1 Bft) S 189 0 min 0,000 mm 0,0 UV-I 7 W/m 15,0 C 15,6 C 4,8 km/h (1 Bft) 97,87 %
28.08.2016 06:22 15,5 C 96 % 1015,1 hPa 0,0 l/m 3,2 km/h (1 Bft) S 189 0 min 0,000 mm 0,0 UV-I 7 W/m 14,9 C 15,5 C 4,8 km/h (1 Bft) 100,00 %
28.08.2016 06:24 15,4 C 96 % 1015,1 hPa 0,0 l/m 3,3 km/h (1 Bft) S 189 0 min 0,000 mm 0,0 UV-I 9 W/m 14,8 C 15,4 C 4,8 km/h (1 Bft) 100,00 %
28.08.2016 06:26 15,4 C 96 % 1015,2 hPa 0,0 l/m 3,4 km/h (1 Bft) S 189 0 min 0,000 mm 0,0 UV-I 9 W/m 14,8 C 15,4 C 4,8 km/h (1 Bft) 100,00 %
28.08.2016 06:28 15,4 C 96 % 1015,2 hPa 0,0 l/m 3,0 km/h (1 Bft) S 189 2 min 0,000 mm 0,0 UV-I 11 W/m 14,8 C 15,4 C 4,8 km/h (1 Bft) 100,00 %
28.08.2016 06:30 15,4 C 96 % 1015,3 hPa 0,0 l/m 2,8 km/h (1 Bft) S 190 0 min 0,000 mm 0,0 UV-I 12 W/m 14,8 C 15,4 C 3,2 km/h (1 Bft) 100,00 %
28.08.2016 06:32 15,4 C 96 % 1015,3 hPa 0,0 l/m 1,9 km/h (1 Bft) S 189 0 min 0,000 mm 0,0 UV-I 12 W/m 14,8 C 15,4 C 3,2 km/h (1 Bft) 100,00 %
28.08.2016 06:34 15,6 C 96 % 1015,2 hPa 0,0 l/m 0,6 km/h (0 Bft) S 189 0 min 0,000 mm 0,0 UV-I 14 W/m 15,0 C 15,6 C 3,2 km/h (1 Bft) 97,87 %
28.08.2016 06:36 15,6 C 97 % 1015,2 hPa 0,0 l/m 1,4 km/h (1 Bft) S 189 0 min 0,000 mm 0,0 UV-I 15 W/m 15,1 C 15,6 C 3,2 km/h (1 Bft) 97,87 %
28.08.2016 06:38 15,6 C 96 % 1015,3 hPa 0,0 l/m 1,4 km/h (1 Bft) S 189 0 min 0,000 mm 0,0 UV-I 16 W/m 15,0 C 15,6 C 3,2 km/h (1 Bft) 100,00 %
28.08.2016 06:40 15,6 C 96 % 1015,3 hPa 0,0 l/m 1,0 km/h (0 Bft) S 189 0 min 0,000 mm 0,0 UV-I 18 W/m 15,0 C 15,6 C 1,6 km/h (1 Bft) 100,00 %
28.08.2016 06:42 15,6 C 96 % 1015,4 hPa 0,0 l/m 0,9 km/h (0 Bft) S 189 0 min 0,000 mm 0,0 UV-I 19 W/m 15,0 C 15,6 C 1,6 km/h (1 Bft) 100,00 %
28.08.2016 06:44 15,7 C 97 % 1015,4 hPa 0,0 l/m 0,0 km/h (0 Bft) S 189 0 min 0,000 mm 0,0 UV-I 20 W/m 15,2 C 15,7 C 0,0 km/h (0 Bft) 100,00 %
28.08.2016 06:46 15,7 C 96 % 1015,3 hPa 0,0 l/m 0,0 km/h (0 Bft) S 189 0 min 0,000 mm 0,0 UV-I 21 W/m 15,1 C 15,7 C 0,0 km/h (0 Bft) 100,00 %
28.08.2016 06:48 15,7 C 96 % 1015,3 hPa 0,0 l/m 0,0 km/h (0 Bft) S 189 0 min 0,000 mm 0,0 UV-I 23 W/m 15,1 C 15,7 C 1,6 km/h (1 Bft) 97,87 %
28.08.2016 06:50 15,7 C 96 % 1015,3 hPa 0,0 l/m 0,0 km/h (0 Bft) S 189 0 min 0,000 mm 0,0 UV-I 24 W/m 15,1 C 15,7 C 0,0 km/h (0 Bft) 97,87 %
28.08.2016 06:52 15,8 C 96 % 1015,3 hPa 0,0 l/m 0,0 km/h (0 Bft) S 189 0 min 0,000 mm 0,0 UV-I 25 W/m 15,2 C 15,8 C 1,6 km/h (1 Bft) 100,00 %
28.08.2016 06:54 15,8 C 97 % 1015,3 hPa 0,0 l/m 0,0 km/h (0 Bft) S 189 0 min 0,000 mm 0,0 UV-I 26 W/m 15,3 C 15,8 C 0,0 km/h (0 Bft) 95,74 %
28.08.2016 06:56 15,9 C 97 % 1015,3 hPa 0,0 l/m 0,0 km/h (0 Bft) S 189 0 min 0,000 mm 0,0 UV-I 28 W/m 15,4 C 15,9 C 0,0 km/h (0 Bft) 97,92 %
28.08.2016 06:58 16,0 C 97 % 1015,3 hPa 0,0 l/m 0,0 km/h (0 Bft) S 189 0 min 0,000 mm 0,0 UV-I 29 W/m 15,5 C 16,0 C 0,0 km/h (0 Bft) 97,87 %
28.08.2016 07:00 16,1 C 97 % 1015,3 hPa 0,0 l/m 0,2 km/h (0 Bft) S 190 0 min 0,000 mm 0,0 UV-I 30 W/m 15,6 C 16,1 C 1,6 km/h (1 Bft) 97,87 %
28.08.2016 07:02 16,2 C 97 % 1015,4 hPa 0,0 l/m 0,5 km/h (0 Bft) S 189 0 min 0,000 mm 0,0 UV-I 32 W/m 15,7 C 16,2 C 1,6 km/h (1 Bft) 98,00 %
28.08.2016 07:04 16,3 C 97 % 1015,4 hPa 0,0 l/m 0,6 km/h (0 Bft) S 189 0 min 0,000 mm 0,0 UV-I 33 W/m 15,8 C 16,3 C 1,6 km/h (1 Bft) 95,74 %
28.08.2016 07:06 16,3 C 97 % 1015,4 hPa 0,0 l/m 0,8 km/h (0 Bft) S 189 0 min 0,000 mm 0,0 UV-I 34 W/m 15,8 C 16,3 C 1,6 km/h (1 Bft) 93,62 %
28.08.2016 07:08 16,3 C 97 % 1015,4 hPa 0,0 l/m 0,9 km/h (0 Bft) S 190 0 min 0,000 mm 0,0 UV-I 35 W/m 15,8 C 16,3 C 3,2 km/h (1 Bft) 98,00 %
28.08.2016 07:10 16,4 C 97 % 1015,5 hPa 0,0 l/m 0,6 km/h (0 Bft) S 190 0 min 0,000 mm 0,0 UV-I 37 W/m 15,9 C 16,4 C 1,6 km/h (1 Bft) 97,37 %
28.08.2016 07:12 16,4 C 97 % 1015,5 hPa 0,0 l/m 0,4 km/h (0 Bft) S 190 0 min 0,000 mm 0,0 UV-I 39 W/m 15,9 C 16,4 C 1,6 km/h (1 Bft) 97,87 %
28.08.2016 07:14 16,4 C 96 % 1015,4 hPa 0,0 l/m 0,1 km/h (0 Bft) S 190 0 min 0,000 mm 0,0 UV-I 40 W/m 15,8 C 16,4 C 1,6 km/h (1 Bft) 97,87 %
28.08.2016 07:16 16,4 C 96 % 1015,4 hPa 0,0 l/m 0,0 km/h (0 Bft) S 189 0 min 0,000 mm 0,0 UV-I 48 W/m 15,8 C 16,4 C 0,0 km/h (0 Bft) 95,74 %
28.08.2016 07:18 16,4 C 96 % 1015,4 hPa 0,0 l/m 0,0 km/h (0 Bft) S 190 0 min 0,000 mm 0,0 UV-I 68 W/m 15,8 C 16,4 C 0,0 km/h (0 Bft) 93,62 %
28.08.2016 07:20 16,5 C 96 % 1015,5 hPa 0,0 l/m 0,4 km/h (0 Bft) S 190 0 min 0,000 mm 0,0 UV-I 75 W/m 15,9 C 16,5 C 1,6 km/h (1 Bft) 96,00 %
28.08.2016 07:22 16,6 C 96 % 1015,5 hPa 0,0 l/m 1,2 km/h (1 Bft) S 190 0 min 0,000 mm 0,0 UV-I 77 W/m 16,0 C 16,6 C 3,2 km/h (1 Bft) 95,74 %
28.08.2016 07:24 16,6 C 97 % 1015,5 hPa 0,0 l/m 0,3 km/h (0 Bft) S 189 0 min 0,000 mm 0,0 UV-I 81 W/m 16,1 C 16,6 C 1,6 km/h (1 Bft) 91,49 %
28.08.2016 07:26 16,6 C 96 % 1015,6 hPa 0,0 l/m 0,0 km/h (0 Bft) S 189 0 min 0,000 mm 0,0 UV-I 86 W/m 16,0 C 16,6 C 0,0 km/h (0 Bft) 97,87 %
28.08.2016 07:28 16,7 C 97 % 1015,6 hPa 0,0 l/m 0,1 km/h (0 Bft) S 190 0 min 0,000 mm 0,0 UV-I 89 W/m 16,2 C 16,7 C 1,6 km/h (1 Bft) 97,87 %
28.08.2016 07:30 16,7 C 96 % 1015,6 hPa 0,0 l/m 0,0 km/h (0 Bft) S 190 0 min 0,000 mm 0,0 UV-I 92 W/m 16,1 C 16,7 C 1,6 km/h (1 Bft) 97,87 %
28.08.2016 07:32 16,7 C 96 % 1015,7 hPa 0,0 l/m 0,0 km/h (0 Bft) S 190 0 min 0,000 mm 0,0 UV-I 96 W/m 16,1 C 16,7 C 0,0 km/h (0 Bft) 97,87 %
28.08.2016 07:34 16,8 C 96 % 1015,6 hPa 0,0 l/m 0,0 km/h (0 Bft) S 189 0 min 0,000 mm 0,0 UV-I 98 W/m 16,2 C 16,8 C 0,0 km/h (0 Bft) 97,87 %
28.08.2016 07:36 16,8 C 96 % 1015,6 hPa 0,0 l/m 0,0 km/h (0 Bft) S 190 0 min 0,000 mm 0,0 UV-I 101 W/m 16,2 C 16,8 C 1,6 km/h (1 Bft) 98,00 %
28.08.2016 07:38 16,9 C 96 % 1015,6 hPa 0,0 l/m 0,3 km/h (0 Bft) S 190 0 min 0,000 mm 0,0 UV-I 103 W/m 16,3 C 16,9 C 1,6 km/h (1 Bft) 100,00 %
28.08.2016 07:40 16,9 C 96 % 1015,7 hPa 0,0 l/m 0,8 km/h (0 Bft) S 190 0 min 0,000 mm 0,0 UV-I 106 W/m 16,3 C 16,9 C 1,6 km/h (1 Bft) 100,00 %
28.08.2016 07:42 17,0 C 96 % 1015,7 hPa 0,0 l/m 0,1 km/h (0 Bft) S 190 0 min 0,000 mm 0,0 UV-I 110 W/m 16,4 C 17,0 C 1,6 km/h (1 Bft) 100,00 %
28.08.2016 07:44 17,1 C 96 % 1015,6 hPa 0,0 l/m 0,0 km/h (0 Bft) S 189 0 min 0,000 mm 0,0 UV-I 114 W/m 16,5 C 17,1 C 0,0 km/h (0 Bft) 100,00 %
28.08.2016 07:46 17,2 C 96 % 1015,7 hPa 0,0 l/m 0,2 km/h (0 Bft) S 189 0 min 0,000 mm 0,0 UV-I 119 W/m 16,6 C 17,2 C 1,6 km/h (1 Bft) 100,00 %
28.08.2016 07:48 17,3 C 96 % 1015,7 hPa 0,0 l/m 0,2 km/h (0 Bft) S 190 0 min 0,000 mm 0,0 UV-I 126 W/m 16,7 C 17,3 C 1,6 km/h (1 Bft) 97,87 %
28.08.2016 07:50 17,4 C 95 % 1015,7 hPa 0,0 l/m 0,1 km/h (0 Bft) S 190 0 min 0,000 mm 0,0 UV-I 136 W/m 16,6 C 17,4 C 1,6 km/h (1 Bft) 95,74 %
28.08.2016 07:52 17,4 C 95 % 1015,7 hPa 0,0 l/m 0,0 km/h (0 Bft) S 189 2 min 0,000 mm 0,0 UV-I 143 W/m 16,6 C 17,4 C 0,0 km/h (0 Bft) 98,00 %
28.08.2016 07:54 17,5 C 95 % 1015,7 hPa 0,0 l/m 0,1 km/h (0 Bft) S 189 2 min 0,000 mm 0,0 UV-I 151 W/m 16,7 C 17,5 C 1,6 km/h (1 Bft) 100,00 %
28.08.2016 07:56 17,6 C 95 % 1015,8 hPa 0,0 l/m 0,2 km/h (0 Bft) S 189 2 min 0,000 mm 0,0 UV-I 157 W/m 16,8 C 17,6 C 1,6 km/h (1 Bft) 95,74 %
28.08.2016 07:58 17,7 C 94 % 1015,8 hPa 0,0 l/m 0,0 km/h (0 Bft) S 189 2 min 0,000 mm 0,0 UV-I 162 W/m 16,7 C 17,7 C 0,0 km/h (0 Bft) 100,00 %
28.08.2016 08:00 17,7 C 94 % 1015,8 hPa 0,0 l/m 0,8 km/h (0 Bft) S 189 2 min 0,051 mm 0,0 UV-I 165 W/m 16,7 C 17,7 C 3,2 km/h (1 Bft) 100,00 %
28.08.2016 08:02 17,8 C 94 % 1015,8 hPa 0,0 l/m 0,5 km/h (0 Bft) S 189 2 min 0,000 mm 0,0 UV-I 169 W/m 16,8 C 17,8 C 1,6 km/h (1 Bft) 97,87 %
28.08.2016 08:04 17,9 C 94 % 1015,8 hPa 0,0 l/m 1,6 km/h (1 Bft) S 189 2 min 0,000 mm 0,2 UV-I 169 W/m 16,9 C 17,9 C 3,2 km/h (1 Bft) 100,00 %
28.08.2016 08:06 17,9 C 93 % 1015,9 hPa 0,0 l/m 1,5 km/h (1 Bft) S 190 2 min 0,000 mm 0,5 UV-I 169 W/m 16,8 C 17,9 C 3,2 km/h (1 Bft) 100,00 %
28.08.2016 08:08 18,0 C 93 % 1016,0 hPa 0,0 l/m 2,1 km/h (1 Bft) S 190 2 min 0,000 mm 0,5 UV-I 171 W/m 16,8 C 18,0 C 3,2 km/h (1 Bft) 97,87 %
28.08.2016 08:10 18,1 C 93 % 1016,0 hPa 0,0 l/m 2,3 km/h (1 Bft) S 190 2 min 0,000 mm 0,5 UV-I 182 W/m 16,9 C 18,1 C 3,2 km/h (1 Bft) 100,00 %
28.08.2016 08:12 18,2 C 93 % 1016,0 hPa 0,0 l/m 0,8 km/h (0 Bft) S 190 2 min 0,000 mm 0,5 UV-I 186 W/m 17,0 C 18,2 C 3,2 km/h (1 Bft) 97,87 %
28.08.2016 08:14 18,2 C 92 % 1016,0 hPa 0,0 l/m 0,4 km/h (0 Bft) S 190 2 min 0,000 mm 0,6 UV-I 187 W/m 16,9 C 18,2 C 1,6 km/h (1 Bft) 100,00 %
28.08.2016 08:16 18,2 C 92 % 1016,0 hPa 0,0 l/m 0,2 km/h (0 Bft) S 189 2 min 0,000 mm 0,6 UV-I 189 W/m 16,9 C 18,2 C 1,6 km/h (1 Bft) 100,00 %
28.08.2016 08:18 18,3 C 92 % 1016,0 hPa 0,0 l/m 0,0 km/h (0 Bft) S 189 2 min 0,000 mm 0,6 UV-I 193 W/m 17,0 C 18,3 C 0,0 km/h (0 Bft) 100,00 %
28.08.2016 08:20 18,4 C 92 % 1016,0 hPa 0,0 l/m 0,2 km/h (0 Bft) S 190 2 min 0,000 mm 0,7 UV-I 196 W/m 17,1 C 18,4 C 1,6 km/h (1 Bft) 97,92 %
28.08.2016 08:22 18,6 C 91 % 1016,0 hPa 0,0 l/m 0,1 km/h (0 Bft) S 190 2 min 0,000 mm 0,7 UV-I 198 W/m 17,1 C 18,6 C 1,6 km/h (1 Bft) 100,00 %
28.08.2016 08:24 18,7 C 91 % 1016,1 hPa 0,0 l/m 0,1 km/h (0 Bft) S 190 2 min 0,000 mm 0,7 UV-I 200 W/m 17,2 C 18,7 C 1,6 km/h (1 Bft) 100,00 %
28.08.2016 08:26 18,8 C 91 % 1016,0 hPa 0,0 l/m 0,4 km/h (0 Bft) S 190 2 min 0,000 mm 0,7 UV-I 197 W/m 17,3 C 18,8 C 1,6 km/h (1 Bft) 100,00 %
28.08.2016 08:28 18,8 C 90 % 1016,0 hPa 0,0 l/m 1,6 km/h (1 Bft) S 190 0 min 0,000 mm 0,8 UV-I 192 W/m 17,1 C 18,8 C 3,2 km/h (1 Bft) 97,87 %
28.08.2016 08:30 18,8 C 90 % 1016,0 hPa 0,0 l/m 1,7 km/h (1 Bft) S 190 0 min 0,000 mm 0,8 UV-I 188 W/m 17,1 C 18,8 C 3,2 km/h (1 Bft) 97,87 %
28.08.2016 08:32 18,7 C 91 % 1016,0 hPa 0,0 l/m 1,5 km/h (1 Bft) S 190 0 min 0,000 mm 0,8 UV-I 187 W/m 17,2 C 18,7 C 1,6 km/h (1 Bft) 97,87 %
28.08.2016 08:34 18,8 C 91 % 1016,1 hPa 0,0 l/m 1,1 km/h (1 Bft) S 190 0 min 0,000 mm 0,8 UV-I 187 W/m 17,3 C 18,8 C 3,2 km/h (1 Bft) 100,00 %
28.08.2016 08:36 18,8 C 90 % 1016,1 hPa 0,0 l/m 0,9 km/h (0 Bft) S 190 0 min 0,000 mm 0,9 UV-I 192 W/m 17,1 C 18,8 C 3,2 km/h (1 Bft) 100,00 %
28.08.2016 08:38 18,8 C 90 % 1016,1 hPa 0,0 l/m 0,7 km/h (0 Bft) S 190 0 min 0,000 mm 0,9 UV-I 201 W/m 17,1 C 18,8 C 3,2 km/h (1 Bft) 97,87 %
28.08.2016 08:40 18,8 C 90 % 1016,1 hPa 0,0 l/m 1,0 km/h (0 Bft) S 190 2 min 0,000 mm 0,9 UV-I 213 W/m 17,1 C 18,8 C 1,6 km/h (1 Bft) 100,00 %
28.08.2016 08:42 19,0 C 91 % 1016,1 hPa 0,0 l/m 0,8 km/h (0 Bft) S 189 2 min 0,000 mm 0,9 UV-I 226 W/m 17,5 C 19,0 C 4,8 km/h (1 Bft) 97,87 %
28.08.2016 08:44 19,0 C 90 % 1016,1 hPa 0,0 l/m 1,4 km/h (1 Bft) S 189 2 min 0,000 mm 1,0 UV-I 240 W/m 17,3 C 19,0 C 3,2 km/h (1 Bft) 100,00 %
28.08.2016 08:46 19,1 C 90 % 1016,1 hPa 0,0 l/m 0,8 km/h (0 Bft) S 189 2 min 0,000 mm 1,0 UV-I 257 W/m 17,4 C 19,1 C 1,6 km/h (1 Bft) 100,00 %
28.08.2016 08:48 19,1 C 90 % 1016,2 hPa 0,0 l/m 0,9 km/h (0 Bft) S 189 2 min 0,000 mm 1,0 UV-I 272 W/m 17,4 C 19,1 C 1,6 km/h (1 Bft) 97,96 %
28.08.2016 08:50 19,2 C 90 % 1016,2 hPa 0,0 l/m 1,1 km/h (1 Bft) S 189 2 min 0,000 mm 1,1 UV-I 282 W/m 17,5 C 19,2 C 3,2 km/h (1 Bft) 100,00 %
28.08.2016 08:52 19,2 C 89 % 1016,2 hPa 0,0 l/m 1,6 km/h (1 Bft) S 189 2 min 0,000 mm 1,1 UV-I 296 W/m 17,3 C 19,2 C 3,2 km/h (1 Bft) 95,74 %
28.08.2016 08:54 19,2 C 89 % 1016,2 hPa 0,0 l/m 0,9 km/h (0 Bft) S 189 2 min 0,000 mm 1,1 UV-I 308 W/m 17,3 C 19,2 C 3,2 km/h (1 Bft) 97,87 %
28.08.2016 08:56 19,3 C 90 % 1016,2 hPa 0,0 l/m 0,2 km/h (0 Bft) S 189 2 min 0,000 mm 1,2 UV-I 319 W/m 17,6 C 19,3 C 1,6 km/h (1 Bft) 100,00 %
28.08.2016 08:58 19,5 C 90 % 1016,2 hPa 0,0 l/m 1,3 km/h (1 Bft) S 189 2 min 0,000 mm 1,2 UV-I 330 W/m 17,8 C 19,5 C 3,2 km/h (1 Bft) 95,74 %
28.08.2016 09:00 19,7 C 90 % 1016,3 hPa 0,0 l/m 0,4 km/h (0 Bft) S 189 2 min 0,127 mm 1,3 UV-I 342 W/m 18,0 C 19,7 C 3,2 km/h (1 Bft) 93,62 %
28.08.2016 09:02 19,8 C 89 % 1016,2 hPa 0,0 l/m 1,6 km/h (1 Bft) S 184 2 min 0,000 mm 1,3 UV-I 348 W/m 17,9 C 19,8 C 3,2 km/h (1 Bft) 97,87 %
28.08.2016 09:04 19,9 C 88 % 1016,2 hPa 0,0 l/m 2,9 km/h (1 Bft) S 174 2 min 0,000 mm 1,3 UV-I 357 W/m 17,8 C 19,9 C 4,8 km/h (1 Bft) 97,87 %
28.08.2016 09:06 19,9 C 87 % 1016,3 hPa 0,0 l/m 1,8 km/h (1 Bft) S 174 2 min 0,000 mm 1,3 UV-I 363 W/m 17,7 C 19,9 C 3,2 km/h (1 Bft) 93,62 %
28.08.2016 09:08 19,9 C 87 % 1016,3 hPa 0,0 l/m 1,3 km/h (1 Bft) S 174 2 min 0,000 mm 1,4 UV-I 368 W/m 17,7 C 19,9 C 3,2 km/h (1 Bft) 97,87 %
28.08.2016 09:10 19,9 C 88 % 1016,3 hPa 0,0 l/m 1,4 km/h (1 Bft) S 174 2 min 0,000 mm 1,4 UV-I 375 W/m 17,8 C 19,9 C 3,2 km/h (1 Bft) 95,74 %
28.08.2016 09:12 19,9 C 88 % 1016,3 hPa 0,0 l/m 1,4 km/h (1 Bft) S 174 2 min 0,000 mm 1,5 UV-I 381 W/m 17,8 C 19,9 C 3,2 km/h (1 Bft) 95,74 %
28.08.2016 09:14 20,1 C 89 % 1016,3 hPa 0,0 l/m 1,6 km/h (1 Bft) S 174 2 min 0,000 mm 1,5 UV-I 385 W/m 18,2 C 20,1 C 3,2 km/h (1 Bft) 93,62 %
28.08.2016 09:16 20,2 C 87 % 1016,3 hPa 0,0 l/m 1,7 km/h (1 Bft) S 188 2 min 0,000 mm 1,5 UV-I 390 W/m 18,0 C 20,2 C 4,8 km/h (1 Bft) 93,62 %
28.08.2016 09:18 20,3 C 87 % 1016,2 hPa 0,0 l/m 1,1 km/h (1 Bft) S 187 2 min 0,000 mm 1,6 UV-I 397 W/m 18,1 C 20,3 C 4,8 km/h (1 Bft) 97,87 %
28.08.2016 09:20 20,2 C 86 % 1016,3 hPa 0,0 l/m 1,8 km/h (1 Bft) S 187 2 min 0,000 mm 1,6 UV-I 402 W/m 17,8 C 20,2 C 3,2 km/h (1 Bft) 97,87 %
28.08.2016 09:22 20,3 C 87 % 1016,3 hPa 0,0 l/m 2,0 km/h (1 Bft) S 186 2 min 0,000 mm 1,6 UV-I 408 W/m 18,1 C 20,3 C 3,2 km/h (1 Bft) 97,37 %
28.08.2016 09:24 20,4 C 87 % 1016,2 hPa 0,0 l/m 0,5 km/h (0 Bft) S 186 2 min 0,000 mm 1,7 UV-I 412 W/m 18,2 C 20,4 C 1,6 km/h (1 Bft) 97,87 %
28.08.2016 09:26 20,7 C 86 % 1016,2 hPa 0,0 l/m 1,2 km/h (1 Bft) S 185 2 min 0,000 mm 1,7 UV-I 417 W/m 18,3 C 20,7 C 3,2 km/h (1 Bft) 95,83 %
28.08.2016 09:28 20,7 C 85 % 1016,2 hPa 0,0 l/m 1,6 km/h (1 Bft) S 186 2 min 0,000 mm 1,8 UV-I 422 W/m 18,1 C 20,7 C 3,2 km/h (1 Bft) 97,87 %
28.08.2016 09:30 20,8 C 86 % 1016,3 hPa 0,0 l/m 1,3 km/h (1 Bft) S 190 2 min 0,000 mm 1,8 UV-I 425 W/m 18,4 C 20,8 C 3,2 km/h (1 Bft) 93,62 %
28.08.2016 09:32 20,9 C 85 % 1016,3 hPa 0,0 l/m 1,8 km/h (1 Bft) S 190 2 min 0,000 mm 1,9 UV-I 430 W/m 18,3 C 20,9 C 3,2 km/h (1 Bft) 97,92 %
28.08.2016 09:34 21,0 C 85 % 1016,3 hPa 0,0 l/m 1,8 km/h (1 Bft) S 190 2 min 0,000 mm 1,9 UV-I 434 W/m 18,4 C 21,0 C 4,8 km/h (1 Bft) 95,74 %
28.08.2016 09:36 21,1 C 85 % 1016,2 hPa 0,0 l/m 1,8 km/h (1 Bft) S 190 2 min 0,000 mm 1,9 UV-I 438 W/m 18,5 C 21,1 C 3,2 km/h (1 Bft) 100,00 %
28.08.2016 09:38 21,2 C 85 % 1016,2 hPa 0,0 l/m 1,8 km/h (1 Bft) S 190 2 min 0,000 mm 2,0 UV-I 444 W/m 18,6 C 21,2 C 3,2 km/h (1 Bft) 100,00 %
28.08.2016 09:40 21,2 C 84 % 1016,2 hPa 0,0 l/m 1,7 km/h (1 Bft) S 186 2 min 0,000 mm 2,0 UV-I 449 W/m 18,4 C 21,2 C 4,8 km/h (1 Bft) 97,87 %
28.08.2016 09:42 21,3 C 83 % 1016,2 hPa 0,0 l/m 2,4 km/h (1 Bft) S-SW 194 2 min 0,000 mm 2,1 UV-I 455 W/m 18,3 C 21,3 C 4,8 km/h (1 Bft) 100,00 %
28.08.2016 09:44 21,4 C 84 % 1016,2 hPa 0,0 l/m 1,7 km/h (1 Bft) S-SW 195 2 min 0,000 mm 2,1 UV-I 461 W/m 18,6 C 21,4 C 3,2 km/h (1 Bft) 97,87 %
28.08.2016 09:46 21,6 C 83 % 1016,2 hPa 0,0 l/m 3,0 km/h (1 Bft) S 183 2 min 0,000 mm 2,2 UV-I 465 W/m 18,6 C 21,6 C 8,0 km/h (2 Bft) 100,00 %
28.08.2016 09:48 21,6 C 83 % 1016,2 hPa 0,0 l/m 4,7 km/h (1 Bft) S 188 2 min 0,000 mm 2,2 UV-I 472 W/m 18,6 C 21,6 C 8,0 km/h (2 Bft) 100,00 %
28.08.2016 09:50 21,6 C 83 % 1016,2 hPa 0,0 l/m 3,3 km/h (1 Bft) S 188 2 min 0,000 mm 2,2 UV-I 479 W/m 18,6 C 21,6 C 6,4 km/h (2 Bft) 100,00 %
28.08.2016 09:52 21,7 C 83 % 1016,2 hPa 0,0 l/m 0,4 km/h (0 Bft) S 188 2 min 0,000 mm 2,3 UV-I 481 W/m 18,7 C 21,7 C 1,6 km/h (1 Bft) 100,00 %
28.08.2016 09:54 21,7 C 83 % 1016,3 hPa 0,0 l/m 0,6 km/h (0 Bft) S 188 2 min 0,000 mm 2,3 UV-I 487 W/m 18,7 C 21,7 C 1,6 km/h (1 Bft) 100,00 %
28.08.2016 09:56 21,9 C 84 % 1016,2 hPa 0,0 l/m 0,4 km/h (0 Bft) S 188 2 min 0,000 mm 2,4 UV-I 490 W/m 19,1 C 21,9 C 1,6 km/h (1 Bft) 100,00 %
28.08.2016 09:58 22,2 C 82 % 1016,2 hPa 0,0 l/m 0,4 km/h (0 Bft) S 188 2 min 0,000 mm 2,4 UV-I 495 W/m 19,0 C 22,2 C 1,6 km/h (1 Bft) 100,00 %
28.08.2016 10:00 22,3 C 82 % 1016,3 hPa 0,0 l/m 0,2 km/h (0 Bft) S 188 2 min 0,254 mm 2,5 UV-I 497 W/m 19,1 C 22,3 C 1,6 km/h (1 Bft) 100,00 %
28.08.2016 10:02 22,2 C 81 % 1016,3 hPa 0,0 l/m 0,9 km/h (0 Bft) S 188 2 min 0,000 mm 2,5 UV-I 503 W/m 18,8 C 22,2 C 1,6 km/h (1 Bft) 97,87 %
28.08.2016 10:04 22,3 C 82 % 1016,2 hPa 0,0 l/m 0,6 km/h (0 Bft) S 188 2 min 0,000 mm 2,5 UV-I 505 W/m 19,1 C 22,3 C 3,2 km/h (1 Bft) 98,00 %
28.08.2016 10:06 22,4 C 82 % 1016,3 hPa 0,0 l/m 0,4 km/h (0 Bft) S 188 2 min 0,000 mm 2,6 UV-I 513 W/m 19,2 C 22,4 C 1,6 km/h (1 Bft) 100,00 %
28.08.2016 10:08 22,4 C 80 % 1016,3 hPa 0,0 l/m 2,1 km/h (1 Bft) S 190 2 min 0,000 mm 2,6 UV-I 519 W/m 18,8 C 22,4 C 4,8 km/h (1 Bft) 100,00 %
28.08.2016 10:10 22,4 C 80 % 1016,3 hPa 0,0 l/m 1,4 km/h (1 Bft) S 190 2 min 0,000 mm 2,7 UV-I 522 W/m 18,8 C 22,4 C 3,2 km/h (1 Bft) 100,00 %
28.08.2016 10:12 22,6 C 81 % 1016,4 hPa 0,0 l/m 0,7 km/h (0 Bft) S 190 2 min 0,000 mm 2,7 UV-I 525 W/m 19,2 C 22,6 C 1,6 km/h (1 Bft) 97,92 %
28.08.2016 10:14 22,6 C 80 % 1016,3 hPa 0,0 l/m 3,0 km/h (1 Bft) W 271 2 min 0,000 mm 2,8 UV-I 529 W/m 19,0 C 22,6 C 6,4 km/h (2 Bft) 98,00 %
28.08.2016 10:16 22,8 C 80 % 1016,3 hPa 0,0 l/m 2,1 km/h (1 Bft) W-SW 258 2 min 0,000 mm 2,8 UV-I 536 W/m 19,2 C 22,8 C 4,8 km/h (1 Bft) 100,00 %
28.08.2016 10:18 22,9 C 79 % 1016,4 hPa 0,0 l/m 3,6 km/h (1 Bft) W 275 2 min 0,000 mm 2,9 UV-I 538 W/m 19,1 C 22,9 C 6,4 km/h (2 Bft) 100,00 %
28.08.2016 10:20 22,9 C 79 % 1016,4 hPa 0,0 l/m 3,5 km/h (1 Bft) W 261 2 min 0,000 mm 2,9 UV-I 543 W/m 19,1 C 22,9 C 6,4 km/h (2 Bft) 97,87 %
28.08.2016 10:22 22,9 C 78 % 1016,4 hPa 0,0 l/m 3,3 km/h (1 Bft) W 264 2 min 0,000 mm 2,9 UV-I 548 W/m 18,9 C 22,9 C 6,4 km/h (2 Bft) 100,00 %
28.08.2016 10:24 23,0 C 78 % 1016,4 hPa 0,0 l/m 4,5 km/h (1 Bft) SW 217 2 min 0,000 mm 3,0 UV-I 551 W/m 18,9 C 23,0 C 6,4 km/h (2 Bft) 100,00 %
28.08.2016 10:26 23,0 C 78 % 1016,4 hPa 0,0 l/m 3,6 km/h (1 Bft) W 272 2 min 0,000 mm 3,0 UV-I 556 W/m 18,9 C 23,0 C 6,4 km/h (2 Bft) 97,87 %
28.08.2016 10:28 23,0 C 78 % 1016,3 hPa 0,0 l/m 1,2 km/h (1 Bft) W 273 2 min 0,000 mm 3,1 UV-I 561 W/m 18,9 C 23,0 C 3,2 km/h (1 Bft) 100,00 %
28.08.2016 10:30 23,1 C 79 % 1016,3 hPa 0,0 l/m 1,6 km/h (1 Bft) W 273 2 min 0,000 mm 3,1 UV-I 563 W/m 19,3 C 23,1 C 3,2 km/h (1 Bft) 100,00 %
28.08.2016 10:32 23,3 C 79 % 1016,3 hPa 0,0 l/m 0,5 km/h (0 Bft) W 273 2 min 0,000 mm 3,1 UV-I 569 W/m 19,4 C 23,3 C 3,2 km/h (1 Bft) 100,00 %
28.08.2016 10:34 23,3 C 78 % 1016,3 hPa 0,0 l/m 1,6 km/h (1 Bft) W-NW 287 2 min 0,000 mm 3,2 UV-I 568 W/m 19,2 C 23,3 C 4,8 km/h (1 Bft) 97,87 %
28.08.2016 10:36 23,5 C 78 % 1016,4 hPa 0,0 l/m 2,8 km/h (1 Bft) W-SW 253 2 min 0,000 mm 3,2 UV-I 570 W/m 19,4 C 23,5 C 4,8 km/h (1 Bft) 100,00 %
28.08.2016 10:38 23,4 C 78 % 1016,4 hPa 0,0 l/m 3,0 km/h (1 Bft) W-NW 283 2 min 0,000 mm 3,2 UV-I 575 W/m 19,3 C 23,4 C 4,8 km/h (1 Bft) 100,00 %
28.08.2016 10:40 23,5 C 79 % 1016,4 hPa 0,0 l/m 2,5 km/h (1 Bft) N-NW 333 2 min 0,000 mm 3,3 UV-I 580 W/m 19,6 C 23,5 C 4,8 km/h (1 Bft) 100,00 %
28.08.2016 10:42 23,5 C 78 % 1016,4 hPa 0,0 l/m 1,0 km/h (0 Bft) N-NW 335 2 min 0,000 mm 3,3 UV-I 584 W/m 19,4 C 23,5 C 4,8 km/h (1 Bft) 100,00 %
28.08.2016 10:44 23,6 C 78 % 1016,3 hPa 0,0 l/m 2,0 km/h (1 Bft) N 5 2 min 0,000 mm 3,3 UV-I 587 W/m 19,5 C 23,6 C 4,8 km/h (1 Bft) 100,00 %
28.08.2016 10:46 23,5 C 76 % 1016,4 hPa 0,0 l/m 2,6 km/h (1 Bft) N-NO 30 2 min 0,000 mm 3,4 UV-I 590 W/m 19,0 C 23,5 C 6,4 km/h (2 Bft) 100,00 %
28.08.2016 10:48 23,6 C 76 % 1016,4 hPa 0,0 l/m 4,1 km/h (1 Bft) NW 323 2 min 0,000 mm 3,4 UV-I 592 W/m 19,1 C 23,6 C 8,0 km/h (2 Bft) 100,00 %
28.08.2016 10:50 23,7 C 77 % 1016,4 hPa 0,0 l/m 2,7 km/h (1 Bft) NW 304 2 min 0,000 mm 3,4 UV-I 595 W/m 19,4 C 23,7 C 4,8 km/h (1 Bft) 97,87 %
28.08.2016 10:52 23,8 C 77 % 1016,4 hPa 0,0 l/m 2,1 km/h (1 Bft) N-NW 346 2 min 0,000 mm 3,5 UV-I 596 W/m 19,5 C 23,8 C 6,4 km/h (2 Bft) 100,00 %
28.08.2016 10:54 23,8 C 77 % 1016,4 hPa 0,0 l/m 1,7 km/h (1 Bft) N 5 2 min 0,000 mm 3,5 UV-I 604 W/m 19,5 C 23,8 C 3,2 km/h (1 Bft) 93,62 %
28.08.2016 10:56 23,9 C 75 % 1016,4 hPa 0,0 l/m 3,6 km/h (1 Bft) NW 306 2 min 0,000 mm 3,6 UV-I 607 W/m 19,2 C 23,9 C 6,4 km/h (2 Bft) 97,87 %
28.08.2016 10:58 23,9 C 75 % 1016,4 hPa 0,0 l/m 2,7 km/h (1 Bft) NW 317 2 min 0,000 mm 3,6 UV-I 611 W/m 19,2 C 23,9 C 6,4 km/h (2 Bft) 97,87 %
28.08.2016 11:00 23,9 C 78 % 1016,4 hPa 0,0 l/m 1,7 km/h (1 Bft) N-NW 340 2 min 0,355 mm 3,7 UV-I 617 W/m 19,8 C 23,9 C 4,8 km/h (1 Bft) 95,74 %
28.08.2016 11:02 24,2 C 76 % 1016,4 hPa 0,0 l/m 2,9 km/h (1 Bft) NW 315 2 min 0,000 mm 3,7 UV-I 622 W/m 19,7 C 24,2 C 6,4 km/h (2 Bft) 97,87 %
28.08.2016 11:04 24,2 C 75 % 1016,4 hPa 0,0 l/m 1,8 km/h (1 Bft) NW 316 2 min 0,000 mm 3,8 UV-I 627 W/m 19,5 C 24,2 C 4,8 km/h (1 Bft) 97,87 %
28.08.2016 11:06 24,2 C 77 % 1016,4 hPa 0,0 l/m 1,4 km/h (1 Bft) N-NW 333 2 min 0,000 mm 3,8 UV-I 629 W/m 19,9 C 24,2 C 4,8 km/h (1 Bft) 97,87 %
28.08.2016 11:08 24,3 C 75 % 1016,4 hPa 0,0 l/m 1,2 km/h (1 Bft) N-NW 333 2 min 0,000 mm 3,8 UV-I 636 W/m 19,6 C 24,3 C 4,8 km/h (1 Bft) 97,87 %
28.08.2016 11:10 24,2 C 74 % 1016,3 hPa 0,0 l/m 2,0 km/h (1 Bft) N-NW 342 2 min 0,000 mm 3,9 UV-I 641 W/m 19,3 C 24,2 C 4,8 km/h (1 Bft) 95,74 %
28.08.2016 11:12 24,2 C 76 % 1016,4 hPa 0,0 l/m 2,2 km/h (1 Bft) NW 309 2 min 0,000 mm 3,9 UV-I 643 W/m 19,7 C 24,2 C 3,2 km/h (1 Bft) 97,87 %
28.08.2016 11:14 24,4 C 75 % 1016,4 hPa 0,0 l/m 2,0 km/h (1 Bft) N-NW 336 2 min 0,000 mm 4,0 UV-I 645 W/m 19,7 C 24,4 C 4,8 km/h (1 Bft) 98,00 %
28.08.2016 11:16 24,6 C 75 % 1016,3 hPa 0,0 l/m 2,3 km/h (1 Bft) NW 321 2 min 0,000 mm 4,0 UV-I 647 W/m 19,9 C 24,6 C 6,4 km/h (2 Bft) 97,87 %
28.08.2016 11:18 24,7 C 74 % 1016,3 hPa 0,0 l/m 2,3 km/h (1 Bft) W-NW 302 2 min 0,000 mm 4,0 UV-I 649 W/m 19,7 C 24,7 C 6,4 km/h (2 Bft) 97,87 %
28.08.2016 11:20 24,7 C 73 % 1016,3 hPa 0,0 l/m 2,4 km/h (1 Bft) NW 317 2 min 0,000 mm 4,1 UV-I 653 W/m 19,5 C 24,7 C 4,8 km/h (1 Bft) 97,87 %
28.08.2016 11:22 24,6 C 75 % 1016,3 hPa 0,0 l/m 2,1 km/h (1 Bft) NW 317 2 min 0,000 mm 4,1 UV-I 657 W/m 19,9 C 24,6 C 4,8 km/h (1 Bft) 97,87 %
28.08.2016 11:24 24,6 C 72 % 1016,3 hPa 0,0 l/m 2,7 km/h (1 Bft) NW 318 2 min 0,000 mm 4,2 UV-I 662 W/m 19,2 C 24,6 C 6,4 km/h (2 Bft) 95,74 %
28.08.2016 11:26 24,6 C 73 % 1016,3 hPa 0,0 l/m 1,1 km/h (1 Bft) N-NW 329 2 min 0,000 mm 4,2 UV-I 664 W/m 19,4 C 24,6 C 3,2 km/h (1 Bft) 95,74 %
28.08.2016 11:28 24,7 C 74 % 1016,3 hPa 0,0 l/m 1,0 km/h (0 Bft) N-NW 329 2 min 0,000 mm 4,2 UV-I 664 W/m 19,7 C 24,7 C 3,2 km/h (1 Bft) 100,00 %
28.08.2016 11:30 24,8 C 74 % 1016,3 hPa 0,0 l/m 1,9 km/h (1 Bft) N-NW 346 2 min 0,000 mm 4,2 UV-I 665 W/m 19,8 C 24,8 C 4,8 km/h (1 Bft) 100,00 %
28.08.2016 11:32 24,8 C 73 % 1016,3 hPa 0,0 l/m 2,2 km/h (1 Bft) N-NO 23 2 min 0,000 mm 4,3 UV-I 668 W/m 19,6 C 24,8 C 4,8 km/h (1 Bft) 100,00 %
28.08.2016 11:34 24,7 C 72 % 1016,3 hPa 0,0 l/m 2,9 km/h (1 Bft) W 272 2 min 0,000 mm 4,3 UV-I 670 W/m 19,3 C 24,7 C 4,8 km/h (1 Bft) 100,00 %
28.08.2016 11:36 24,9 C 76 % 1016,3 hPa 0,0 l/m 2,0 km/h (1 Bft) W 273 2 min 0,000 mm 4,4 UV-I 676 W/m 20,4 C 24,9 C 4,8 km/h (1 Bft) 95,74 %
28.08.2016 11:38 25,1 C 74 % 1016,3 hPa 0,0 l/m 1,5 km/h (1 Bft) N-NW 329 2 min 0,000 mm 4,4 UV-I 680 W/m 20,1 C 25,1 C 6,4 km/h (2 Bft) 100,00 %
28.08.2016 11:40 25,2 C 72 % 1016,3 hPa 0,0 l/m 2,9 km/h (1 Bft) N-NW 338 2 min 0,000 mm 4,4 UV-I 681 W/m 19,8 C 25,2 C 6,4 km/h (2 Bft) 100,00 %
28.08.2016 11:42 25,3 C 72 % 1016,2 hPa 0,0 l/m 3,0 km/h (1 Bft) W 280 2 min 0,000 mm 4,4 UV-I 681 W/m 19,9 C 25,3 C 8,0 km/h (2 Bft) 96,00 %
28.08.2016 11:44 25,2 C 70 % 1016,2 hPa 0,0 l/m 3,4 km/h (1 Bft) NW 323 2 min 0,000 mm 4,5 UV-I 682 W/m 19,3 C 25,2 C 4,8 km/h (1 Bft) 98,00 %
28.08.2016 11:46 25,3 C 74 % 1016,2 hPa 0,0 l/m 3,0 km/h (1 Bft) N-NO 24 2 min 0,000 mm 4,5 UV-I 685 W/m 20,3 C 25,3 C 6,4 km/h (2 Bft) 100,00 %
28.08.2016 11:48 25,7 C 71 % 1016,2 hPa 0,0 l/m 4,8 km/h (1 Bft) N 5 2 min 0,000 mm 4,5 UV-I 687 W/m 20,0 C 25,7 C 6,4 km/h (2 Bft) 100,00 %
28.08.2016 11:50 25,8 C 70 % 1016,3 hPa 0,0 l/m 3,3 km/h (1 Bft) NW 319 2 min 0,000 mm 4,6 UV-I 686 W/m 19,9 C 25,8 C 6,4 km/h (2 Bft) 95,74 %
28.08.2016 11:52 25,7 C 70 % 1016,2 hPa 0,0 l/m 1,4 km/h (1 Bft) NW 321 2 min 0,000 mm 4,6 UV-I 688 W/m 19,8 C 25,7 C 3,2 km/h (1 Bft) 100,00 %
28.08.2016 11:54 25,6 C 71 % 1016,2 hPa 0,0 l/m 1,5 km/h (1 Bft) N 349 2 min 0,000 mm 4,6 UV-I 693 W/m 19,9 C 25,6 C 3,2 km/h (1 Bft) 100,00 %
28.08.2016 11:56 25,7 C 71 % 1016,2 hPa 0,0 l/m 2,3 km/h (1 Bft) NW 319 2 min 0,000 mm 4,7 UV-I 696 W/m 20,0 C 25,7 C 4,8 km/h (1 Bft) 100,00 %
28.08.2016 11:58 25,7 C 71 % 1016,2 hPa 0,0 l/m 2,4 km/h (1 Bft) NW 319 2 min 0,000 mm 4,7 UV-I 697 W/m 20,0 C 25,7 C 4,8 km/h (1 Bft) 100,00 %
28.08.2016 12:00 25,7 C 71 % 1016,1 hPa 0,0 l/m 2,1 km/h (1 Bft) NW 306 2 min 0,432 mm 4,7 UV-I 699 W/m 20,0 C 25,7 C 4,8 km/h (1 Bft) 100,00 %
28.08.2016 12:02 25,6 C 72 % 1016,1 hPa 0,0 l/m 1,2 km/h (1 Bft) NW 311 2 min 0,000 mm 4,7 UV-I 703 W/m 20,2 C 25,6 C 4,8 km/h (1 Bft) 98,00 %
28.08.2016 12:04 25,6 C 70 % 1016,1 hPa 0,0 l/m 4,1 km/h (1 Bft) W-NW 286 2 min 0,000 mm 4,8 UV-I 703 W/m 19,7 C 25,6 C 6,4 km/h (2 Bft) 100,00 %
28.08.2016 12:06 25,7 C 72 % 1016,1 hPa 0,0 l/m 1,4 km/h (1 Bft) W-NW 282 2 min 0,000 mm 4,8 UV-I 707 W/m 20,3 C 25,7 C 3,2 km/h (1 Bft) 100,00 %
28.08.2016 12:08 25,9 C 71 % 1016,1 hPa 0,0 l/m 2,1 km/h (1 Bft) NW 311 2 min 0,000 mm 4,8 UV-I 709 W/m 20,2 C 25,9 C 4,8 km/h (1 Bft) 100,00 %
28.08.2016 12:10 25,9 C 71 % 1016,0 hPa 0,0 l/m 2,5 km/h (1 Bft) N 11 2 min 0,000 mm 4,8 UV-I 708 W/m 20,2 C 25,9 C 4,8 km/h (1 Bft) 100,00 %
28.08.2016 12:12 25,9 C 72 % 1015,9 hPa 0,0 l/m 3,5 km/h (1 Bft) O-NO 75 2 min 0,000 mm 4,8 UV-I 708 W/m 20,5 C 25,9 C 8,0 km/h (2 Bft) 100,00 %
28.08.2016 12:14 25,9 C 70 % 1015,9 hPa 0,0 l/m 7,1 km/h (2 Bft) NO 48 2 min 0,000 mm 4,9 UV-I 714 W/m 20,0 C 25,7 C 9,7 km/h (2 Bft) 100,00 %
28.08.2016 12:16 26,2 C 71 % 1015,9 hPa 0,0 l/m 4,7 km/h (1 Bft) NO 52 2 min 0,000 mm 4,9 UV-I 714 W/m 20,5 C 26,2 C 8,0 km/h (2 Bft) 97,87 %
28.08.2016 12:18 26,2 C 71 % 1015,9 hPa 0,0 l/m 3,6 km/h (1 Bft) O-NO 60 2 min 0,000 mm 4,9 UV-I 712 W/m 20,5 C 26,2 C 6,4 km/h (2 Bft) 98,00 %
28.08.2016 12:20 26,3 C 69 % 1015,9 hPa 0,0 l/m 3,2 km/h (1 Bft) NO 49 2 min 0,000 mm 4,9 UV-I 717 W/m 20,1 C 26,3 C 6,4 km/h (2 Bft) 100,00 %
28.08.2016 12:22 26,1 C 70 % 1015,9 hPa 0,0 l/m 1,3 km/h (1 Bft) O 89 2 min 0,000 mm 4,9 UV-I 718 W/m 20,2 C 26,1 C 3,2 km/h (1 Bft) 100,00 %
28.08.2016 12:24 26,2 C 70 % 1015,8 hPa 0,0 l/m 4,6 km/h (1 Bft) N 5 2 min 0,000 mm 4,9 UV-I 718 W/m 20,3 C 26,2 C 9,7 km/h (2 Bft) 100,00 %
28.08.2016 12:26 26,3 C 69 % 1015,8 hPa 0,0 l/m 2,3 km/h (1 Bft) NO 51 2 min 0,000 mm 5,0 UV-I 719 W/m 20,1 C 26,3 C 4,8 km/h (1 Bft) 100,00 %
28.08.2016 12:28 26,4 C 70 % 1015,7 hPa 0,0 l/m 2,6 km/h (1 Bft) N 355 2 min 0,000 mm 5,0 UV-I 724 W/m 20,5 C 26,4 C 4,8 km/h (1 Bft) 94,74 %
28.08.2016 12:30 26,7 C 69 % 1015,7 hPa 0,0 l/m 4,5 km/h (1 Bft) NO 51 2 min 0,000 mm 5,0 UV-I 721 W/m 20,5 C 26,7 C 8,0 km/h (2 Bft) 100,00 %
28.08.2016 12:32 26,6 C 69 % 1015,7 hPa 0,0 l/m 3,5 km/h (1 Bft) N-NO 33 2 min 0,000 mm 5,0 UV-I 723 W/m 20,4 C 26,6 C 6,4 km/h (2 Bft) 100,00 %
28.08.2016 12:34 26,6 C 69 % 1015,7 hPa 0,0 l/m 3,7 km/h (1 Bft) NO 40 2 min 0,000 mm 5,0 UV-I 722 W/m 20,4 C 26,6 C 6,4 km/h (2 Bft) 97,87 %
28.08.2016 12:36 26,6 C 72 % 1015,7 hPa 0,0 l/m 0,4 km/h (0 Bft) NO 40 2 min 0,000 mm 5,0 UV-I 724 W/m 21,1 C 26,6 C 1,6 km/h (1 Bft) 100,00 %
28.08.2016 12:38 26,7 C 70 % 1015,6 hPa 0,0 l/m 2,0 km/h (1 Bft) W-NW 282 2 min 0,000 mm 5,0 UV-I 724 W/m 20,8 C 26,7 C 6,4 km/h (2 Bft) 100,00 %
28.08.2016 12:40 26,8 C 68 % 1015,7 hPa 0,0 l/m 2,6 km/h (1 Bft) W 273 2 min 0,000 mm 5,0 UV-I 723 W/m 20,4 C 26,8 C 4,8 km/h (1 Bft) 95,74 %
28.08.2016 12:42 27,1 C 73 % 1015,6 hPa 0,0 l/m 2,0 km/h (1 Bft) N-NW 346 2 min 0,000 mm 5,0 UV-I 726 W/m 21,8 C 27,1 C 3,2 km/h (1 Bft) 100,00 %
28.08.2016 12:44 27,2 C 67 % 1015,6 hPa 0,0 l/m 3,1 km/h (1 Bft) N-NW 336 2 min 0,000 mm 5,0 UV-I 726 W/m 20,5 C 27,2 C 4,8 km/h (1 Bft) 98,00 %
28.08.2016 12:46 27,2 C 68 % 1015,6 hPa 0,0 l/m 2,9 km/h (1 Bft) N 360 2 min 0,000 mm 5,1 UV-I 728 W/m 20,8 C 27,2 C 8,0 km/h (2 Bft) 97,22 %
28.08.2016 12:48 27,2 C 69 % 1015,5 hPa 0,0 l/m 3,5 km/h (1 Bft) N-NO 32 2 min 0,000 mm 5,1 UV-I 729 W/m 21,0 C 27,2 C 6,4 km/h (2 Bft) 100,00 %
28.08.2016 12:50 27,2 C 67 % 1015,5 hPa 0,0 l/m 4,1 km/h (1 Bft) O 101 2 min 0,000 mm 5,1 UV-I 729 W/m 20,5 C 27,2 C 6,4 km/h (2 Bft) 97,87 %
28.08.2016 12:52 27,2 C 67 % 1015,5 hPa 0,0 l/m 2,9 km/h (1 Bft) NO 51 2 min 0,000 mm 5,1 UV-I 729 W/m 20,5 C 27,2 C 4,8 km/h (1 Bft) 96,00 %
28.08.2016 12:54 27,2 C 67 % 1015,5 hPa 0,0 l/m 2,0 km/h (1 Bft) O-NO 65 2 min 0,000 mm 5,1 UV-I 730 W/m 20,5 C 27,2 C 6,4 km/h (2 Bft) 100,00 %
28.08.2016 12:56 27,3 C 67 % 1015,6 hPa 0,0 l/m 1,7 km/h (1 Bft) SO 139 2 min 0,000 mm 5,1 UV-I 731 W/m 20,6 C 27,3 C 3,2 km/h (1 Bft) 95,74 %
28.08.2016 12:58 27,3 C 66 % 1015,5 hPa 0,0 l/m 2,8 km/h (1 Bft) S-SW 192 2 min 0,000 mm 5,1 UV-I 732 W/m 20,4 C 27,3 C 4,8 km/h (1 Bft) 97,87 %
28.08.2016 13:00 27,2 C 67 % 1015,5 hPa 0,0 l/m 1,5 km/h (1 Bft) W-SW 245 2 min 0,000 mm 5,1 UV-I 735 W/m 20,5 C 27,2 C 3,2 km/h (1 Bft) 97,87 %
28.08.2016 13:02 27,4 C 69 % 1015,6 hPa 0,0 l/m 0,7 km/h (0 Bft) W 263 2 min 0,483 mm 5,1 UV-I 735 W/m 21,2 C 27,4 C 3,2 km/h (1 Bft) 97,87 %
28.08.2016 13:04 27,6 C 67 % 1015,5 hPa 0,0 l/m 1,6 km/h (1 Bft) W 277 2 min 0,000 mm 5,1 UV-I 736 W/m 20,9 C 27,6 C 3,2 km/h (1 Bft) 97,87 %
28.08.2016 13:06 27,7 C 67 % 1015,6 hPa 0,0 l/m 2,1 km/h (1 Bft) W-NW 284 2 min 0,000 mm 5,0 UV-I 731 W/m 21,0 C 27,7 C 3,2 km/h (1 Bft) 97,87 %
28.08.2016 13:08 27,8 C 66 % 1015,5 hPa 0,0 l/m 2,0 km/h (1 Bft) W-NW 287 2 min 0,000 mm 5,0 UV-I 728 W/m 20,8 C 27,8 C 3,2 km/h (1 Bft) 97,87 %
28.08.2016 13:10 27,9 C 67 % 1015,5 hPa 0,0 l/m 1,7 km/h (1 Bft) N-NO 22 2 min 0,000 mm 5,0 UV-I 729 W/m 21,2 C 27,9 C 8,0 km/h (2 Bft) 96,00 %
28.08.2016 13:12 28,2 C 66 % 1015,5 hPa 0,0 l/m 4,2 km/h (1 Bft) W-NW 302 2 min 0,000 mm 5,0 UV-I 729 W/m 21,2 C 28,2 C 8,0 km/h (2 Bft) 97,92 %
28.08.2016 13:14 28,4 C 64 % 1015,5 hPa 0,0 l/m 3,0 km/h (1 Bft) W 275 2 min 0,000 mm 5,0 UV-I 728 W/m 20,9 C 28,4 C 6,4 km/h (2 Bft) 95,74 %
28.08.2016 13:16 28,4 C 66 % 1015,4 hPa 0,0 l/m 1,8 km/h (1 Bft) W-NW 299 2 min 0,000 mm 5,0 UV-I 731 W/m 21,4 C 28,4 C 3,2 km/h (1 Bft) 97,87 %
28.08.2016 13:18 28,4 C 65 % 1015,4 hPa 0,0 l/m 0,7 km/h (0 Bft) NW 311 2 min 0,000 mm 5,0 UV-I 734 W/m 21,2 C 28,4 C 3,2 km/h (1 Bft) 97,87 %
28.08.2016 13:20 28,3 C 65 % 1015,4 hPa 0,0 l/m 2,9 km/h (1 Bft) W 275 2 min 0,000 mm 5,0 UV-I 733 W/m 21,1 C 28,3 C 6,4 km/h (2 Bft) 97,96 %
28.08.2016 13:22 28,4 C 65 % 1015,4 hPa 0,0 l/m 3,7 km/h (1 Bft) W-SW 240 2 min 0,000 mm 5,0 UV-I 734 W/m 21,2 C 28,4 C 6,4 km/h (2 Bft) 100,00 %
28.08.2016 13:24 28,5 C 63 % 1015,5 hPa 0,0 l/m 2,9 km/h (1 Bft) W-NW 288 2 min 0,000 mm 5,0 UV-I 736 W/m 20,8 C 28,5 C 6,4 km/h (2 Bft) 97,87 %
28.08.2016 13:26 28,4 C 66 % 1015,4 hPa 0,0 l/m 2,2 km/h (1 Bft) W-NW 296 2 min 0,000 mm 5,0 UV-I 732 W/m 21,4 C 28,4 C 4,8 km/h (1 Bft) 97,22 %
28.08.2016 13:28 28,4 C 64 % 1015,4 hPa 0,0 l/m 6,5 km/h (2 Bft) W 271 2 min 0,000 mm 5,0 UV-I 731 W/m 20,9 C 28,4 C 11,3 km/h (2 Bft) 100,00 %
28.08.2016 13:30 28,3 C 64 % 1015,4 hPa 0,0 l/m 2,6 km/h (1 Bft) W 267 2 min 0,000 mm 5,0 UV-I 732 W/m 20,8 C 28,3 C 4,8 km/h (1 Bft) 97,87 %
28.08.2016 13:32 28,4 C 64 % 1015,3 hPa 0,0 l/m 1,5 km/h (1 Bft) N 5 2 min 0,000 mm 5,0 UV-I 733 W/m 20,9 C 28,4 C 3,2 km/h (1 Bft) 100,00 %
28.08.2016 13:34 28,5 C 65 % 1015,2 hPa 0,0 l/m 3,1 km/h (1 Bft) N-NO 23 2 min 0,000 mm 5,0 UV-I 732 W/m 21,3 C 28,5 C 6,4 km/h (2 Bft) 100,00 %
28.08.2016 13:36 28,7 C 64 % 1015,3 hPa 0,0 l/m 1,9 km/h (1 Bft) NW 310 2 min 0,000 mm 5,0 UV-I 730 W/m 21,2 C 28,7 C 3,2 km/h (1 Bft) 100,00 %
28.08.2016 13:38 28,7 C 62 % 1015,3 hPa 0,0 l/m 2,3 km/h (1 Bft) NW 315 2 min 0,000 mm 4,9 UV-I 728 W/m 20,7 C 28,7 C 4,8 km/h (1 Bft) 97,87 %
28.08.2016 13:40 28,6 C 63 % 1015,3 hPa 0,0 l/m 2,2 km/h (1 Bft) N-NW 327 2 min 0,000 mm 4,9 UV-I 726 W/m 20,8 C 28,6 C 4,8 km/h (1 Bft) 98,11 %
28.08.2016 13:42 28,6 C 63 % 1015,3 hPa 0,0 l/m 0,9 km/h (0 Bft) NW 321 2 min 0,000 mm 4,9 UV-I 728 W/m 20,8 C 28,6 C 3,2 km/h (1 Bft) 100,00 %
28.08.2016 13:44 28,8 C 64 % 1015,3 hPa 0,0 l/m 3,5 km/h (1 Bft) W-NW 290 2 min 0,000 mm 4,9 UV-I 725 W/m 21,3 C 28,8 C 6,4 km/h (2 Bft) 100,00 %
28.08.2016 13:46 28,9 C 65 % 1015,2 hPa 0,0 l/m 1,9 km/h (1 Bft) NW 308 2 min 0,000 mm 4,9 UV-I 724 W/m 21,6 C 28,9 C 4,8 km/h (1 Bft) 97,37 %
28.08.2016 13:48 28,9 C 62 % 1015,2 hPa 0,0 l/m 0,5 km/h (0 Bft) NW 308 2 min 0,000 mm 4,8 UV-I 723 W/m 20,9 C 28,9 C 1,6 km/h (1 Bft) 100,00 %
28.08.2016 13:50 29,1 C 61 % 1015,2 hPa 0,0 l/m 4,9 km/h (1 Bft) SW 232 2 min 0,000 mm 4,8 UV-I 726 W/m 20,8 C 29,1 C 8,0 km/h (2 Bft) 100,00 %
28.08.2016 13:52 29,1 C 60 % 1015,2 hPa 0,0 l/m 5,2 km/h (1 Bft) SW 230 2 min 0,000 mm 4,8 UV-I 725 W/m 20,5 C 29,1 C 6,4 km/h (2 Bft) 100,00 %
28.08.2016 13:54 29,2 C 61 % 1015,1 hPa 0,0 l/m 5,0 km/h (1 Bft) W-SW 248 2 min 0,000 mm 4,7 UV-I 709 W/m 20,9 C 29,2 C 11,3 km/h (2 Bft) 100,00 %
28.08.2016 13:56 29,2 C 61 % 1015,1 hPa 0,0 l/m 3,1 km/h (1 Bft) NO 40 2 min 0,000 mm 4,7 UV-I 694 W/m 20,9 C 29,2 C 6,4 km/h (2 Bft) 100,00 %
28.08.2016 13:58 29,3 C 62 % 1015,1 hPa 0,0 l/m 4,4 km/h (1 Bft) W 273 2 min 0,000 mm 4,7 UV-I 696 W/m 21,2 C 29,3 C 9,7 km/h (2 Bft) 100,00 %
28.08.2016 14:00 29,3 C 61 % 1015,1 hPa 0,0 l/m 3,7 km/h (1 Bft) W-SW 246 2 min 0,482 mm 4,7 UV-I 700 W/m 21,0 C 29,3 C 8,0 km/h (2 Bft) 95,74 %
28.08.2016 14:02 29,3 C 63 % 1015,1 hPa 0,0 l/m 4,4 km/h (1 Bft) SW 236 2 min 0,000 mm 4,7 UV-I 713 W/m 21,5 C 29,3 C 8,0 km/h (2 Bft) 100,00 %
28.08.2016 14:04 29,4 C 62 % 1015,0 hPa 0,0 l/m 4,1 km/h (1 Bft) W-NW 296 2 min 0,000 mm 4,7 UV-I 712 W/m 21,3 C 29,4 C 9,7 km/h (2 Bft) 100,00 %
28.08.2016 14:06 29,4 C 60 % 1015,1 hPa 0,0 l/m 4,9 km/h (1 Bft) W 261 2 min 0,000 mm 4,6 UV-I 711 W/m 20,8 C 29,4 C 9,7 km/h (2 Bft) 100,00 %
28.08.2016 14:08 29,5 C 61 % 1015,0 hPa 0,0 l/m 3,7 km/h (1 Bft) W-SW 240 2 min 0,000 mm 4,6 UV-I 711 W/m 21,2 C 29,5 C 11,3 km/h (2 Bft) 97,92 %
28.08.2016 14:10 29,5 C 60 % 1015,0 hPa 0,0 l/m 8,0 km/h (2 Bft) W-SW 240 2 min 0,000 mm 4,5 UV-I 704 W/m 20,9 C 29,3 C 11,3 km/h (2 Bft) 100,00 %
28.08.2016 14:12 29,6 C 59 % 1014,9 hPa 0,0 l/m 6,4 km/h (2 Bft) S-SW 192 2 min 0,000 mm 4,5 UV-I 704 W/m 20,7 C 29,6 C 9,7 km/h (2 Bft) 97,87 %
28.08.2016 14:14 29,7 C 59 % 1014,9 hPa 0,0 l/m 8,7 km/h (2 Bft) SW 224 2 min 0,000 mm 4,5 UV-I 708 W/m 20,8 C 29,5 C 16,1 km/h (3 Bft) 100,00 %
28.08.2016 14:16 29,7 C 58 % 1015,0 hPa 0,0 l/m 10,2 km/h (2 Bft) W 262 2 min 0,000 mm 4,5 UV-I 704 W/m 20,5 C 29,3 C 17,7 km/h (3 Bft) 100,00 %
28.08.2016 14:18 29,5 C 58 % 1014,9 hPa 0,0 l/m 1,3 km/h (1 Bft) S-SO 165 2 min 0,000 mm 4,4 UV-I 697 W/m 20,3 C 29,5 C 3,2 km/h (1 Bft) 100,00 %
28.08.2016 14:20 29,6 C 60 % 1014,9 hPa 0,0 l/m 2,6 km/h (1 Bft) W 277 2 min 0,000 mm 4,4 UV-I 690 W/m 21,0 C 29,6 C 9,7 km/h (2 Bft) 97,87 %
28.08.2016 14:22 29,7 C 62 % 1014,9 hPa 0,0 l/m 4,2 km/h (1 Bft) W 261 2 min 0,000 mm 4,3 UV-I 689 W/m 21,6 C 29,7 C 9,7 km/h (2 Bft) 100,00 %
28.08.2016 14:24 29,6 C 59 % 1014,8 hPa 0,0 l/m 5,1 km/h (1 Bft) W 277 2 min 0,000 mm 4,3 UV-I 686 W/m 20,7 C 29,6 C 11,3 km/h (2 Bft) 100,00 %
28.08.2016 14:26 29,6 C 59 % 1014,8 hPa 0,0 l/m 4,1 km/h (1 Bft) W 275 2 min 0,000 mm 4,3 UV-I 680 W/m 20,7 C 29,6 C 6,4 km/h (2 Bft) 100,00 %
28.08.2016 14:28 29,5 C 59 % 1014,8 hPa 0,0 l/m 3,6 km/h (1 Bft) W 262 2 min 0,000 mm 4,2 UV-I 672 W/m 20,6 C 29,5 C 4,8 km/h (1 Bft) 100,00 %
28.08.2016 14:30 29,5 C 62 % 1014,7 hPa 0,0 l/m 3,2 km/h (1 Bft) S-SW 209 2 min 0,000 mm 4,2 UV-I 671 W/m 21,4 C 29,5 C 6,4 km/h (2 Bft) 100,00 %
28.08.2016 14:32 29,8 C 60 % 1014,7 hPa 0,0 l/m 1,1 km/h (1 Bft) N-NW 340 2 min 0,000 mm 4,2 UV-I 669 W/m 21,2 C 29,8 C 3,2 km/h (1 Bft) 97,87 %
28.08.2016 14:34 29,9 C 60 % 1014,7 hPa 0,0 l/m 1,4 km/h (1 Bft) NW 324 2 min 0,000 mm 4,0 UV-I 660 W/m 21,3 C 29,9 C 3,2 km/h (1 Bft) 100,00 %
28.08.2016 14:36 30,1 C 60 % 1014,7 hPa 0,0 l/m 1,8 km/h (1 Bft) W 275 2 min 0,000 mm 4,0 UV-I 653 W/m 21,5 C 30,1 C 4,8 km/h (1 Bft) 97,87 %
28.08.2016 14:38 30,1 C 57 % 1014,6 hPa 0,0 l/m 3,5 km/h (1 Bft) NW 309 2 min 0,000 mm 4,0 UV-I 664 W/m 20,6 C 30,1 C 8,0 km/h (2 Bft) 97,87 %
28.08.2016 14:40 30,2 C 57 % 1014,6 hPa 0,0 l/m 4,0 km/h (1 Bft) W-SW 249 2 min 0,000 mm 4,0 UV-I 664 W/m 20,7 C 30,2 C 6,4 km/h (2 Bft) 100,00 %
28.08.2016 14:42 30,2 C 57 % 1014,5 hPa 0,0 l/m 3,5 km/h (1 Bft) W-SW 239 2 min 0,000 mm 4,0 UV-I 661 W/m 20,7 C 30,2 C 9,7 km/h (2 Bft) 95,83 %
28.08.2016 14:44 30,2 C 57 % 1014,5 hPa 0,0 l/m 1,9 km/h (1 Bft) W 261 2 min 0,000 mm 4,0 UV-I 659 W/m 20,7 C 30,2 C 3,2 km/h (1 Bft) 97,87 %
28.08.2016 14:46 30,2 C 58 % 1014,6 hPa 0,0 l/m 5,4 km/h (1 Bft) W-SW 252 2 min 0,000 mm 3,9 UV-I 647 W/m 21,0 C 30,2 C 8,0 km/h (2 Bft) 100,00 %
28.08.2016 14:48 30,1 C 59 % 1014,5 hPa 0,0 l/m 3,0 km/h (1 Bft) W 281 2 min 0,000 mm 3,9 UV-I 648 W/m 21,2 C 30,1 C 4,8 km/h (1 Bft) 97,87 %
28.08.2016 14:50 30,3 C 57 % 1014,5 hPa 0,0 l/m 2,2 km/h (1 Bft) W 266 2 min 0,000 mm 3,9 UV-I 653 W/m 20,8 C 30,3 C 4,8 km/h (1 Bft) 95,74 %
28.08.2016 14:52 30,4 C 58 % 1014,5 hPa 0,0 l/m 3,7 km/h (1 Bft) W 270 2 min 0,000 mm 3,8 UV-I 656 W/m 21,2 C 30,4 C 6,4 km/h (2 Bft) 98,00 %
28.08.2016 14:54 30,3 C 57 % 1014,6 hPa 0,0 l/m 7,2 km/h (2 Bft) W-SW 241 2 min 0,000 mm 3,8 UV-I 652 W/m 20,8 C 30,2 C 14,5 km/h (3 Bft) 95,74 %
28.08.2016 14:56 30,2 C 58 % 1014,5 hPa 0,0 l/m 5,6 km/h (1 Bft) W 276 2 min 0,000 mm 3,8 UV-I 653 W/m 21,0 C 30,2 C 11,3 km/h (2 Bft) 97,87 %
28.08.2016 14:58 30,2 C 56 % 1014,5 hPa 0,0 l/m 5,4 km/h (1 Bft) W 268 2 min 0,000 mm 3,8 UV-I 652 W/m 20,4 C 30,2 C 11,3 km/h (2 Bft) 97,87 %
28.08.2016 15:00 30,0 C 55 % 1014,5 hPa 0,0 l/m 1,7 km/h (1 Bft) SW 236 2 min 0,483 mm 3,7 UV-I 650 W/m 19,9 C 30,0 C 3,2 km/h (1 Bft) 95,74 %
28.08.2016 15:02 30,0 C 57 % 1014,4 hPa 0,0 l/m 1,8 km/h (1 Bft) W-NW 300 2 min 0,000 mm 3,7 UV-I 646 W/m 20,5 C 30,0 C 6,4 km/h (2 Bft) 97,87 %
28.08.2016 15:04 30,2 C 56 % 1014,4 hPa 0,0 l/m 4,2 km/h (1 Bft) W 269 2 min 0,000 mm 3,6 UV-I 640 W/m 20,4 C 30,2 C 9,7 km/h (2 Bft) 97,87 %
28.08.2016 15:06 30,3 C 56 % 1014,4 hPa 0,0 l/m 6,1 km/h (2 Bft) W 259 2 min 0,000 mm 3,6 UV-I 641 W/m 20,5 C 30,3 C 11,3 km/h (2 Bft) 97,87 %
28.08.2016 15:08 30,4 C 55 % 1014,4 hPa 0,0 l/m 5,9 km/h (2 Bft) S 171 2 min 0,000 mm 3,6 UV-I 640 W/m 20,3 C 30,4 C 9,7 km/h (2 Bft) 97,14 %
28.08.2016 15:10 30,3 C 54 % 1014,3 hPa 0,0 l/m 3,2 km/h (1 Bft) S-SO 166 2 min 0,000 mm 3,5 UV-I 634 W/m 19,9 C 30,3 C 6,4 km/h (2 Bft) 94,34 %
28.08.2016 15:12 30,3 C 56 % 1014,4 hPa 0,0 l/m 2,1 km/h (1 Bft) S 171 2 min 0,000 mm 3,5 UV-I 630 W/m 20,5 C 30,3 C 4,8 km/h (1 Bft) 97,87 %
28.08.2016 15:14 30,4 C 55 % 1014,4 hPa 0,0 l/m 2,5 km/h (1 Bft) NW 304 2 min 0,000 mm 3,4 UV-I 620 W/m 20,3 C 30,4 C 4,8 km/h (1 Bft) 96,00 %
28.08.2016 15:16 30,4 C 54 % 1014,4 hPa 0,0 l/m 2,4 km/h (1 Bft) W-NW 300 2 min 0,000 mm 3,4 UV-I 616 W/m 20,0 C 30,4 C 4,8 km/h (1 Bft) 97,87 %
28.08.2016 15:18 30,5 C 55 % 1014,3 hPa 0,0 l/m 0,8 km/h (0 Bft) NW 324 2 min 0,000 mm 3,3 UV-I 620 W/m 20,4 C 30,5 C 3,2 km/h (1 Bft) 97,87 %
28.08.2016 15:20 30,6 C 54 % 1014,3 hPa 0,0 l/m 1,5 km/h (1 Bft) NW 319 2 min 0,000 mm 3,3 UV-I 626 W/m 20,2 C 30,6 C 4,8 km/h (1 Bft) 95,74 %
28.08.2016 15:22 30,5 C 54 % 1014,3 hPa 0,0 l/m 2,0 km/h (1 Bft) W-NW 289 2 min 0,000 mm 3,3 UV-I 637 W/m 20,1 C 30,5 C 8,0 km/h (2 Bft) 100,00 %
28.08.2016 15:24 30,6 C 54 % 1014,3 hPa 0,0 l/m 1,7 km/h (1 Bft) W-NW 282 2 min 0,000 mm 3,0 UV-I 638 W/m 20,2 C 30,6 C 4,8 km/h (1 Bft) 100,00 %
28.08.2016 15:26 30,4 C 56 % 1014,3 hPa 0,0 l/m 5,1 km/h (1 Bft) NW 323 2 min 0,000 mm 2,5 UV-I 386 W/m 20,6 C 30,4 C 11,3 km/h (2 Bft) 100,00 %
28.08.2016 15:28 30,3 C 54 % 1014,2 hPa 0,0 l/m 6,3 km/h (2 Bft) W-NW 298 0 min 0,000 mm 2,8 UV-I 174 W/m 19,9 C 30,3 C 11,3 km/h (2 Bft) 100,00 %
28.08.2016 15:30 30,2 C 53 % 1014,2 hPa 0,0 l/m 2,9 km/h (1 Bft) W-SW 237 2 min 0,000 mm 3,0 UV-I 546 W/m 19,5 C 30,2 C 6,4 km/h (2 Bft) 97,87 %
28.08.2016 15:32 30,2 C 53 % 1014,2 hPa 0,0 l/m 3,3 km/h (1 Bft) S 190 0 min 0,000 mm 2,4 UV-I 328 W/m 19,5 C 30,2 C 8,0 km/h (2 Bft) 100,00 %
28.08.2016 15:34 30,1 C 54 % 1014,1 hPa 0,0 l/m 6,4 km/h (2 Bft) S-SO 157 0 min 0,000 mm 2,4 UV-I 156 W/m 19,7 C 30,1 C 11,3 km/h (2 Bft) 100,00 %
28.08.2016 15:36 30,2 C 55 % 1014,1 hPa 0,0 l/m 5,7 km/h (1 Bft) O-SO 108 0 min 0,000 mm 2,8 UV-I 349 W/m 20,1 C 30,2 C 9,7 km/h (2 Bft) 97,87 %
28.08.2016 15:38 30,3 C 54 % 1014,1 hPa 0,0 l/m 4,8 km/h (1 Bft) O-NO 69 2 min 0,000 mm 2,9 UV-I 601 W/m 19,9 C 30,3 C 11,3 km/h (2 Bft) 97,87 %
28.08.2016 15:40 30,4 C 54 % 1014,0 hPa 0,0 l/m 1,8 km/h (1 Bft) NO 40 2 min 0,000 mm 2,8 UV-I 577 W/m 20,0 C 30,4 C 4,8 km/h (1 Bft) 97,87 %
28.08.2016 15:42 30,6 C 53 % 1014,1 hPa 0,0 l/m 2,1 km/h (1 Bft) S-SO 161 2 min 0,000 mm 2,8 UV-I 573 W/m 19,9 C 30,6 C 4,8 km/h (1 Bft) 98,00 %
28.08.2016 15:44 30,7 C 54 % 1014,0 hPa 0,0 l/m 5,4 km/h (1 Bft) W-NW 294 2 min 0,000 mm 2,8 UV-I 566 W/m 20,3 C 30,7 C 9,7 km/h (2 Bft) 100,00 %
28.08.2016 15:46 30,7 C 53 % 1014,0 hPa 0,0 l/m 3,3 km/h (1 Bft) W 276 2 min 0,000 mm 2,8 UV-I 568 W/m 20,0 C 30,7 C 6,4 km/h (2 Bft) 100,00 %
28.08.2016 15:48 30,8 C 52 % 1014,0 hPa 0,0 l/m 9,4 km/h (2 Bft) W 271 2 min 0,000 mm 2,8 UV-I 565 W/m 19,8 C 30,6 C 16,1 km/h (3 Bft) 100,00 %
28.08.2016 15:50 30,7 C 51 % 1014,0 hPa 0,0 l/m 5,8 km/h (2 Bft) S-SW 212 2 min 0,000 mm 2,7 UV-I 558 W/m 19,4 C 30,7 C 9,7 km/h (2 Bft) 97,87 %
28.08.2016 15:52 30,6 C 51 % 1014,0 hPa 0,0 l/m 2,2 km/h (1 Bft) W 268 2 min 0,000 mm 2,6 UV-I 549 W/m 19,3 C 30,6 C 4,8 km/h (1 Bft) 97,87 %
28.08.2016 15:54 30,7 C 53 % 1014,0 hPa 0,0 l/m 2,7 km/h (1 Bft) W-SW 248 2 min 0,000 mm 2,6 UV-I 547 W/m 20,0 C 30,7 C 6,4 km/h (2 Bft) 100,00 %
28.08.2016 15:56 30,7 C 52 % 1013,9 hPa 0,0 l/m 4,9 km/h (1 Bft) W-SW 251 2 min 0,000 mm 2,6 UV-I 543 W/m 19,7 C 30,7 C 12,9 km/h (3 Bft) 100,00 %
28.08.2016 15:58 30,7 C 52 % 1013,9 hPa 0,0 l/m 6,2 km/h (2 Bft) SW 227 2 min 0,000 mm 2,5 UV-I 536 W/m 19,7 C 30,7 C 9,7 km/h (2 Bft) 100,00 %
28.08.2016 16:00 30,7 C 52 % 1013,9 hPa 0,0 l/m 2,7 km/h (1 Bft) W 270 2 min 0,381 mm 2,2 UV-I 508 W/m 19,7 C 30,7 C 4,8 km/h (1 Bft) 100,00 %
28.08.2016 16:02 30,6 C 52 % 1013,9 hPa 0,0 l/m 3,2 km/h (1 Bft) W-SW 248 0 min 0,000 mm 2,1 UV-I 192 W/m 19,6 C 30,6 C 6,4 km/h (2 Bft) 100,00 %
28.08.2016 16:04 30,4 C 51 % 1013,9 hPa 0,0 l/m 2,6 km/h (1 Bft) W-SW 248 2 min 0,000 mm 2,3 UV-I 498 W/m 19,1 C 30,4 C 4,8 km/h (1 Bft) 100,00 %
28.08.2016 16:06 30,3 C 53 % 1013,9 hPa 0,0 l/m 1,8 km/h (1 Bft) SW 232 2 min 0,000 mm 2,3 UV-I 514 W/m 19,6 C 30,3 C 3,2 km/h (1 Bft) 100,00 %
28.08.2016 16:08 30,4 C 54 % 1013,8 hPa 0,0 l/m 2,2 km/h (1 Bft) SW 231 2 min 0,000 mm 2,2 UV-I 498 W/m 20,0 C 30,4 C 4,8 km/h (1 Bft) 100,00 %
28.08.2016 16:10 30,7 C 51 % 1013,8 hPa 0,0 l/m 2,4 km/h (1 Bft) S-SW 206 2 min 0,000 mm 2,2 UV-I 499 W/m 19,4 C 30,7 C 4,8 km/h (1 Bft) 100,00 %
28.08.2016 16:12 30,8 C 51 % 1013,8 hPa 0,0 l/m 3,5 km/h (1 Bft) S 184 2 min 0,000 mm 2,2 UV-I 499 W/m 19,5 C 30,8 C 8,0 km/h (2 Bft) 100,00 %
28.08.2016 16:14 30,8 C 51 % 1013,8 hPa 0,0 l/m 1,5 km/h (1 Bft) S-SO 150 2 min 0,000 mm 2,2 UV-I 500 W/m 19,5 C 30,8 C 6,4 km/h (2 Bft) 100,00 %
28.08.2016 16:16 30,8 C 52 % 1013,8 hPa 0,0 l/m 3,6 km/h (1 Bft) S-SO 163 2 min 0,000 mm 2,2 UV-I 498 W/m 19,8 C 30,8 C 6,4 km/h (2 Bft) 100,00 %
28.08.2016 16:18 30,8 C 52 % 1013,9 hPa 0,0 l/m 1,4 km/h (1 Bft) S-SO 163 2 min 0,000 mm 2,2 UV-I 501 W/m 19,8 C 30,8 C 3,2 km/h (1 Bft) 100,00 %
28.08.2016 16:20 30,9 C 53 % 1013,8 hPa 0,0 l/m 3,1 km/h (1 Bft) SO 138 2 min 0,000 mm 2,1 UV-I 495 W/m 20,2 C 30,9 C 6,4 km/h (2 Bft) 100,00 %
28.08.2016 16:22 30,8 C 55 % 1013,8 hPa 0,0 l/m 1,4 km/h (1 Bft) SO 138 2 min 0,000 mm 2,1 UV-I 484 W/m 20,7 C 30,8 C 3,2 km/h (1 Bft) 97,87 %
28.08.2016 16:24 30,8 C 55 % 1013,8 hPa 0,0 l/m 1,7 km/h (1 Bft) SO 138 2 min 0,000 mm 2,0 UV-I 475 W/m 20,7 C 30,8 C 3,2 km/h (1 Bft) 100,00 %
28.08.2016 16:26 30,9 C 52 % 1013,7 hPa 0,0 l/m 3,7 km/h (1 Bft) SO 134 2 min 0,000 mm 2,0 UV-I 470 W/m 19,9 C 30,9 C 6,4 km/h (2 Bft) 100,00 %
28.08.2016 16:28 30,8 C 51 % 1013,7 hPa 0,0 l/m 3,4 km/h (1 Bft) SO 132 2 min 0,000 mm 1,9 UV-I 465 W/m 19,5 C 30,8 C 6,4 km/h (2 Bft) 97,30 %
28.08.2016 16:30 30,7 C 52 % 1013,7 hPa 0,0 l/m 1,9 km/h (1 Bft) S-SO 163 2 min 0,000 mm 1,9 UV-I 468 W/m 19,7 C 30,7 C 6,4 km/h (2 Bft) 100,00 %
28.08.2016 16:32 30,8 C 53 % 1013,6 hPa 0,0 l/m 2,1 km/h (1 Bft) SO 138 2 min 0,000 mm 1,9 UV-I 470 W/m 20,1 C 30,8 C 6,4 km/h (2 Bft) 97,87 %
28.08.2016 16:34 30,9 C 54 % 1013,6 hPa 0,0 l/m 2,3 km/h (1 Bft) SO 133 2 min 0,000 mm 1,8 UV-I 465 W/m 20,5 C 30,9 C 4,8 km/h (1 Bft) 95,74 %
28.08.2016 16:36 30,9 C 51 % 1013,6 hPa 0,0 l/m 1,3 km/h (1 Bft) SO 133 2 min 0,000 mm 1,8 UV-I 456 W/m 19,6 C 30,9 C 3,2 km/h (1 Bft) 100,00 %
28.08.2016 16:38 30,9 C 55 % 1013,6 hPa 0,0 l/m 2,7 km/h (1 Bft) O-SO 118 2 min 0,000 mm 1,7 UV-I 447 W/m 20,8 C 30,9 C 4,8 km/h (1 Bft) 100,00 %
28.08.2016 16:40 30,9 C 51 % 1013,6 hPa 0,0 l/m 3,3 km/h (1 Bft) N-NO 33 2 min 0,000 mm 1,7 UV-I 442 W/m 19,6 C 30,9 C 6,4 km/h (2 Bft) 95,74 %
28.08.2016 16:42 30,9 C 51 % 1013,6 hPa 0,0 l/m 1,0 km/h (0 Bft) N-NW 332 2 min 0,000 mm 1,7 UV-I 433 W/m 19,6 C 30,9 C 3,2 km/h (1 Bft) 97,87 %
28.08.2016 16:44 30,9 C 51 % 1013,6 hPa 0,0 l/m 1,2 km/h (1 Bft) NW 320 2 min 0,000 mm 1,6 UV-I 425 W/m 19,6 C 30,9 C 3,2 km/h (1 Bft) 97,92 %
28.08.2016 16:46 30,9 C 51 % 1013,5 hPa 0,0 l/m 4,2 km/h (1 Bft) S-SW 207 2 min 0,000 mm 1,6 UV-I 418 W/m 19,6 C 30,9 C 8,0 km/h (2 Bft) 97,96 %
28.08.2016 16:48 30,9 C 51 % 1013,6 hPa 0,0 l/m 6,0 km/h (2 Bft) S-SW 209 2 min 0,000 mm 1,5 UV-I 414 W/m 19,6 C 30,9 C 8,0 km/h (2 Bft) 97,37 %
28.08.2016 16:50 30,9 C 52 % 1013,6 hPa 0,0 l/m 4,0 km/h (1 Bft) SW 223 2 min 0,000 mm 1,5 UV-I 410 W/m 19,9 C 30,9 C 8,0 km/h (2 Bft) 97,87 %
28.08.2016 16:52 30,9 C 52 % 1013,5 hPa 0,0 l/m 2,2 km/h (1 Bft) SW 228 2 min 0,000 mm 1,5 UV-I 408 W/m 19,9 C 30,9 C 4,8 km/h (1 Bft) 97,87 %
28.08.2016 16:54 30,9 C 53 % 1013,5 hPa 0,0 l/m 1,7 km/h (1 Bft) N-NW 340 2 min 0,000 mm 1,5 UV-I 405 W/m 20,2 C 30,9 C 4,8 km/h (1 Bft) 95,74 %
28.08.2016 16:56 30,9 C 50 % 1013,5 hPa 0,0 l/m 4,8 km/h (1 Bft) W-NW 292 2 min 0,000 mm 1,4 UV-I 402 W/m 19,2 C 30,9 C 9,7 km/h (2 Bft) 97,87 %
28.08.2016 16:58 30,8 C 52 % 1013,5 hPa 0,0 l/m 2,6 km/h (1 Bft) W 269 2 min 0,000 mm 1,4 UV-I 398 W/m 19,8 C 30,8 C 4,8 km/h (1 Bft) 95,74 %
28.08.2016 17:00 30,8 C 51 % 1013,5 hPa 0,0 l/m 3,3 km/h (1 Bft) W 263 2 min 0,330 mm 1,3 UV-I 391 W/m 19,5 C 30,8 C 6,4 km/h (2 Bft) 97,87 %
28.08.2016 17:02 30,8 C 50 % 1013,5 hPa 0,0 l/m 4,2 km/h (1 Bft) W-NW 292 2 min 0,000 mm 1,3 UV-I 386 W/m 19,1 C 30,8 C 6,4 km/h (2 Bft) 97,87 %
28.08.2016 17:04 30,7 C 51 % 1013,4 hPa 0,0 l/m 1,8 km/h (1 Bft) W-NW 292 2 min 0,000 mm 1,3 UV-I 379 W/m 19,4 C 30,7 C 3,2 km/h (1 Bft) 96,00 %
28.08.2016 17:06 30,7 C 52 % 1013,4 hPa 0,0 l/m 2,8 km/h (1 Bft) W-NW 290 2 min 0,000 mm 1,3 UV-I 373 W/m 19,7 C 30,7 C 8,0 km/h (2 Bft) 100,00 %
28.08.2016 17:08 30,7 C 52 % 1013,4 hPa 0,0 l/m 2,9 km/h (1 Bft) W 271 2 min 0,000 mm 1,2 UV-I 367 W/m 19,7 C 30,7 C 6,4 km/h (2 Bft) 97,87 %
28.08.2016 17:10 30,7 C 51 % 1013,4 hPa 0,0 l/m 4,5 km/h (1 Bft) W 264 2 min 0,000 mm 1,2 UV-I 363 W/m 19,4 C 30,7 C 11,3 km/h (2 Bft) 97,87 %
28.08.2016 17:12 30,7 C 51 % 1013,4 hPa 0,0 l/m 3,8 km/h (1 Bft) W 260 2 min 0,000 mm 1,2 UV-I 356 W/m 19,4 C 30,7 C 6,4 km/h (2 Bft) 97,87 %
28.08.2016 17:14 30,7 C 51 % 1013,4 hPa 0,0 l/m 3,9 km/h (1 Bft) S-SW 205 2 min 0,000 mm 1,1 UV-I 349 W/m 19,4 C 30,7 C 4,8 km/h (1 Bft) 100,00 %
28.08.2016 17:16 30,7 C 51 % 1013,4 hPa 0,0 l/m 2,6 km/h (1 Bft) S-SW 205 2 min 0,000 mm 1,1 UV-I 345 W/m 19,4 C 30,7 C 4,8 km/h (1 Bft) 97,87 %
28.08.2016 17:18 30,7 C 52 % 1013,4 hPa 0,0 l/m 2,0 km/h (1 Bft) NW 310 2 min 0,000 mm 1,1 UV-I 340 W/m 19,7 C 30,7 C 6,4 km/h (2 Bft) 100,00 %
28.08.2016 17:20 30,7 C 50 % 1013,3 hPa 0,0 l/m 3,4 km/h (1 Bft) W 273 2 min 0,000 mm 1,0 UV-I 336 W/m 19,1 C 30,7 C 9,7 km/h (2 Bft) 100,00 %
28.08.2016 17:22 30,6 C 50 % 1013,3 hPa 0,0 l/m 3,5 km/h (1 Bft) N-NW 338 2 min 0,000 mm 1,0 UV-I 327 W/m 19,0 C 30,6 C 6,4 km/h (2 Bft) 100,00 %
28.08.2016 17:24 30,6 C 51 % 1013,3 hPa 0,0 l/m 1,8 km/h (1 Bft) NW 313 2 min 0,000 mm 1,0 UV-I 320 W/m 19,3 C 30,6 C 3,2 km/h (1 Bft) 97,37 %
28.08.2016 17:26 30,6 C 51 % 1013,3 hPa 0,0 l/m 1,7 km/h (1 Bft) NW 313 2 min 0,000 mm 0,9 UV-I 315 W/m 19,3 C 30,6 C 3,2 km/h (1 Bft) 97,87 %
28.08.2016 17:28 30,6 C 51 % 1013,3 hPa 0,0 l/m 1,1 km/h (1 Bft) NW 313 2 min 0,000 mm 0,9 UV-I 311 W/m 19,3 C 30,6 C 1,6 km/h (1 Bft) 100,00 %
28.08.2016 17:30 30,7 C 50 % 1013,3 hPa 0,0 l/m 3,5 km/h (1 Bft) W-SW 254 2 min 0,000 mm 0,9 UV-I 307 W/m 19,1 C 30,7 C 6,4 km/h (2 Bft) 100,00 %
28.08.2016 17:32 30,7 C 50 % 1013,3 hPa 0,0 l/m 3,0 km/h (1 Bft) SW 223 2 min 0,000 mm 0,9 UV-I 303 W/m 19,1 C 30,7 C 4,8 km/h (1 Bft) 100,00 %
28.08.2016 17:34 30,7 C 50 % 1013,2 hPa 0,0 l/m 2,8 km/h (1 Bft) W-SW 243 2 min 0,000 mm 0,8 UV-I 300 W/m 19,1 C 30,7 C 6,4 km/h (2 Bft) 97,87 %
28.08.2016 17:36 30,7 C 50 % 1013,2 hPa 0,0 l/m 3,6 km/h (1 Bft) W 263 2 min 0,000 mm 0,8 UV-I 293 W/m 19,1 C 30,7 C 6,4 km/h (2 Bft) 97,87 %
28.08.2016 17:38 30,7 C 51 % 1013,2 hPa 0,0 l/m 1,0 km/h (0 Bft) W 263 2 min 0,000 mm 0,8 UV-I 287 W/m 19,4 C 30,7 C 4,8 km/h (1 Bft) 97,87 %
28.08.2016 17:40 30,7 C 51 % 1013,2 hPa 0,0 l/m 1,5 km/h (1 Bft) W 271 2 min 0,000 mm 0,8 UV-I 271 W/m 19,4 C 30,7 C 3,2 km/h (1 Bft) 97,87 %
28.08.2016 17:42 30,7 C 53 % 1013,2 hPa 0,0 l/m 1,9 km/h (1 Bft) N-NW 330 2 min 0,000 mm 0,7 UV-I 276 W/m 20,0 C 30,7 C 3,2 km/h (1 Bft) 100,00 %
28.08.2016 17:44 30,7 C 53 % 1013,2 hPa 0,0 l/m 1,4 km/h (1 Bft) N-NW 348 2 min 0,000 mm 0,7 UV-I 270 W/m 20,0 C 30,7 C 3,2 km/h (1 Bft) 100,00 %
28.08.2016 17:46 30,6 C 53 % 1013,2 hPa 0,0 l/m 1,6 km/h (1 Bft) N-NW 339 2 min 0,000 mm 0,7 UV-I 265 W/m 19,9 C 30,6 C 3,2 km/h (1 Bft) 97,87 %
28.08.2016 17:48 30,5 C 55 % 1013,2 hPa 0,0 l/m 1,1 km/h (1 Bft) N-NW 334 2 min 0,000 mm 0,7 UV-I 261 W/m 20,4 C 30,5 C 3,2 km/h (1 Bft) 95,74 %
28.08.2016 17:50 30,4 C 53 % 1013,2 hPa 0,0 l/m 1,2 km/h (1 Bft) N-NW 338 2 min 0,000 mm 0,6 UV-I 257 W/m 19,7 C 30,4 C 3,2 km/h (1 Bft) 100,00 %
28.08.2016 17:52 30,4 C 54 % 1013,1 hPa 0,0 l/m 1,8 km/h (1 Bft) NW 320 2 min 0,000 mm 0,6 UV-I 251 W/m 20,0 C 30,4 C 4,8 km/h (1 Bft) 100,00 %
28.08.2016 17:54 30,3 C 53 % 1013,1 hPa 0,0 l/m 1,7 km/h (1 Bft) N-NW 340 2 min 0,000 mm 0,6 UV-I 243 W/m 19,6 C 30,3 C 3,2 km/h (1 Bft) 97,87 %
28.08.2016 17:56 30,2 C 53 % 1013,2 hPa 0,0 l/m 1,3 km/h (1 Bft) N 355 2 min 0,000 mm 0,6 UV-I 237 W/m 19,5 C 30,2 C 3,2 km/h (1 Bft) 96,00 %
28.08.2016 17:58 30,2 C 54 % 1013,1 hPa 0,0 l/m 0,7 km/h (0 Bft) N 355 2 min 0,000 mm 0,5 UV-I 232 W/m 19,8 C 30,2 C 1,6 km/h (1 Bft) 100,00 %
28.08.2016 18:00 30,3 C 53 % 1013,1 hPa 0,0 l/m 0,8 km/h (0 Bft) N 355 2 min 0,000 mm 0,5 UV-I 225 W/m 19,6 C 30,3 C 1,6 km/h (1 Bft) 100,00 %
28.08.2016 18:02 30,3 C 55 % 1013,1 hPa 0,0 l/m 0,7 km/h (0 Bft) N 349 2 min 0,229 mm 0,5 UV-I 218 W/m 20,2 C 30,3 C 1,6 km/h (1 Bft) 100,00 %
28.08.2016 18:04 30,2 C 55 % 1013,1 hPa 0,0 l/m 1,6 km/h (1 Bft) N-NW 333 2 min 0,000 mm 0,5 UV-I 213 W/m 20,1 C 30,2 C 3,2 km/h (1 Bft) 100,00 %
28.08.2016 18:06 30,2 C 55 % 1013,1 hPa 0,0 l/m 1,2 km/h (1 Bft) N-NW 344 2 min 0,000 mm 0,5 UV-I 208 W/m 20,1 C 30,2 C 3,2 km/h (1 Bft) 100,00 %
28.08.2016 18:08 30,1 C 54 % 1013,1 hPa 0,0 l/m 1,1 km/h (1 Bft) N-NW 345 2 min 0,000 mm 0,1 UV-I 204 W/m 19,7 C 30,1 C 3,2 km/h (1 Bft) 97,87 %
28.08.2016 18:10 30,1 C 54 % 1013,1 hPa 0,0 l/m 1,2 km/h (1 Bft) N-NW 338 2 min 0,000 mm 0,0 UV-I 198 W/m 19,7 C 30,1 C 3,2 km/h (1 Bft) 100,00 %
28.08.2016 18:12 30,1 C 55 % 1013,1 hPa 0,0 l/m 0,5 km/h (0 Bft) N-NW 335 2 min 0,000 mm 0,0 UV-I 192 W/m 20,0 C 30,1 C 3,2 km/h (1 Bft) 100,00 %
28.08.2016 18:14 30,1 C 55 % 1013,1 hPa 0,0 l/m 0,2 km/h (0 Bft) N-NW 335 2 min 0,000 mm 0,0 UV-I 187 W/m 20,0 C 30,1 C 1,6 km/h (1 Bft) 97,87 %
28.08.2016 18:16 30,0 C 54 % 1013,0 hPa 0,0 l/m 0,1 km/h (0 Bft) N-NW 335 2 min 0,000 mm 0,0 UV-I 182 W/m 19,7 C 30,0 C 1,6 km/h (1 Bft) 98,00 %
28.08.2016 18:18 30,0 C 55 % 1013,0 hPa 0,0 l/m 3,0 km/h (1 Bft) N-NW 342 2 min 0,000 mm 0,0 UV-I 177 W/m 19,9 C 30,0 C 4,8 km/h (1 Bft) 97,87 %
28.08.2016 18:20 30,0 C 56 % 1013,0 hPa 0,0 l/m 2,9 km/h (1 Bft) N-NW 344 2 min 0,000 mm 0,0 UV-I 171 W/m 20,2 C 30,0 C 4,8 km/h (1 Bft) 100,00 %
28.08.2016 18:22 29,9 C 56 % 1013,0 hPa 0,0 l/m 4,5 km/h (1 Bft) N-NO 15 2 min 0,000 mm 0,0 UV-I 163 W/m 20,1 C 29,9 C 6,4 km/h (2 Bft) 100,00 %
28.08.2016 18:24 29,9 C 55 % 1013,1 hPa 0,0 l/m 3,9 km/h (1 Bft) N-NO 15 2 min 0,000 mm 0,0 UV-I 158 W/m 19,9 C 29,9 C 6,4 km/h (2 Bft) 95,74 %
28.08.2016 18:26 29,9 C 55 % 1013,0 hPa 0,0 l/m 2,0 km/h (1 Bft) N-NO 15 2 min 0,000 mm 0,0 UV-I 152 W/m 19,9 C 29,9 C 3,2 km/h (1 Bft) 93,62 %
28.08.2016 18:28 29,8 C 55 % 1013,0 hPa 0,0 l/m 2,2 km/h (1 Bft) N-NO 12 2 min 0,000 mm 0,0 UV-I 146 W/m 19,8 C 29,8 C 4,8 km/h (1 Bft) 97,87 %
28.08.2016 18:30 29,8 C 54 % 1013,0 hPa 0,0 l/m 0,5 km/h (0 Bft) N-NO 12 2 min 0,000 mm 0,0 UV-I 139 W/m 19,5 C 29,8 C 1,6 km/h (1 Bft) 95,74 %
28.08.2016 18:32 29,9 C 54 % 1013,0 hPa 0,0 l/m 1,8 km/h (1 Bft) N-NO 12 2 min 0,000 mm 0,0 UV-I 132 W/m 19,6 C 29,9 C 3,2 km/h (1 Bft) 95,74 %
28.08.2016 18:34 29,8 C 54 % 1013,0 hPa 0,0 l/m 1,3 km/h (1 Bft) N-NO 12 2 min 0,000 mm 0,0 UV-I 125 W/m 19,5 C 29,8 C 3,2 km/h (1 Bft) 97,87 %
28.08.2016 18:36 29,9 C 54 % 1013,0 hPa 0,0 l/m 1,3 km/h (1 Bft) N-NO 12 2 min 0,000 mm 0,0 UV-I 119 W/m 19,6 C 29,9 C 3,2 km/h (1 Bft) 97,87 %
28.08.2016 18:38 29,8 C 54 % 1013,0 hPa 0,0 l/m 1,0 km/h (0 Bft) N-NO 12 2 min 0,000 mm 0,0 UV-I 114 W/m 19,5 C 29,8 C 3,2 km/h (1 Bft) 97,92 %
28.08.2016 18:40 29,8 C 55 % 1013,0 hPa 0,0 l/m 1,1 km/h (1 Bft) N-NO 12 2 min 0,000 mm 0,0 UV-I 108 W/m 19,8 C 29,8 C 3,2 km/h (1 Bft) 95,74 %
28.08.2016 18:42 29,8 C 54 % 1013,0 hPa 0,0 l/m 0,3 km/h (0 Bft) N-NO 12 2 min 0,000 mm 0,0 UV-I 104 W/m 19,5 C 29,8 C 1,6 km/h (1 Bft) 97,87 %
28.08.2016 18:44 29,8 C 55 % 1013,0 hPa 0,0 l/m 0,3 km/h (0 Bft) N-NO 12 0 min 0,000 mm 0,0 UV-I 98 W/m 19,8 C 29,8 C 1,6 km/h (1 Bft) 93,62 %
28.08.2016 18:46 29,8 C 55 % 1013,0 hPa 0,0 l/m 0,2 km/h (0 Bft) N-NO 12 0 min 0,000 mm 0,0 UV-I 93 W/m 19,8 C 29,8 C 1,6 km/h (1 Bft) 97,87 %
28.08.2016 18:48 29,7 C 55 % 1013,0 hPa 0,0 l/m 0,1 km/h (0 Bft) N-NO 12 0 min 0,000 mm 0,0 UV-I 88 W/m 19,7 C 29,7 C 1,6 km/h (1 Bft) 95,74 %
28.08.2016 18:50 29,6 C 55 % 1012,9 hPa 0,0 l/m 0,4 km/h (0 Bft) N-NO 12 0 min 0,000 mm 0,0 UV-I 83 W/m 19,6 C 29,6 C 1,6 km/h (1 Bft) 97,87 %
28.08.2016 18:52 29,6 C 55 % 1012,9 hPa 0,0 l/m 0,0 km/h (0 Bft) N-NO 12 0 min 0,000 mm 0,0 UV-I 79 W/m 19,6 C 29,6 C 0,0 km/h (0 Bft) 100,00 %
28.08.2016 18:54 29,6 C 56 % 1012,9 hPa 0,0 l/m 0,0 km/h (0 Bft) N-NO 12 0 min 0,000 mm 0,0 UV-I 74 W/m 19,9 C 29,6 C 0,0 km/h (0 Bft) 100,00 %
28.08.2016 18:56 29,5 C 56 % 1012,9 hPa 0,0 l/m 0,0 km/h (0 Bft) N-NO 12 0 min 0,000 mm 0,0 UV-I 69 W/m 19,8 C 29,5 C 0,0 km/h (0 Bft) 100,00 %
28.08.2016 18:58 29,5 C 57 % 1012,9 hPa 0,0 l/m 0,0 km/h (0 Bft) N-NO 12 0 min 0,000 mm 0,0 UV-I 65 W/m 20,1 C 29,5 C 0,0 km/h (0 Bft) 100,00 %
28.08.2016 19:00 29,4 C 60 % 1012,9 hPa 0,0 l/m 0,0 km/h (0 Bft) N-NO 12 0 min 0,101 mm 0,0 UV-I 61 W/m 20,8 C 29,4 C 0,0 km/h (0 Bft) 97,87 %
28.08.2016 19:02 29,3 C 64 % 1012,9 hPa 0,0 l/m 0,1 km/h (0 Bft) N-NO 12 0 min 0,000 mm 0,0 UV-I 58 W/m 21,8 C 29,3 C 1,6 km/h (1 Bft) 97,87 %
28.08.2016 19:04 29,0 C 65 % 1012,9 hPa 0,0 l/m 0,4 km/h (0 Bft) N-NO 12 0 min 0,000 mm 0,0 UV-I 54 W/m 21,7 C 29,0 C 1,6 km/h (1 Bft) 100,00 %
28.08.2016 19:06 28,7 C 65 % 1012,9 hPa 0,0 l/m 0,1 km/h (0 Bft) N-NO 12 0 min 0,000 mm 0,0 UV-I 51 W/m 21,5 C 28,7 C 1,6 km/h (1 Bft) 100,00 %
28.08.2016 19:08 28,6 C 65 % 1012,8 hPa 0,0 l/m 0,2 km/h (0 Bft) N-NO 12 0 min 0,000 mm 0,0 UV-I 48 W/m 21,4 C 28,6 C 1,6 km/h (1 Bft) 95,74 %
28.08.2016 19:10 28,4 C 68 % 1012,8 hPa 0,0 l/m 0,0 km/h (0 Bft) N-NO 12 0 min 0,000 mm 0,0 UV-I 44 W/m 21,9 C 28,4 C 1,6 km/h (1 Bft) 100,00 %
28.08.2016 19:12 28,3 C 68 % 1012,9 hPa 0,0 l/m 0,0 km/h (0 Bft) N-NO 12 0 min 0,000 mm 0,0 UV-I 40 W/m 21,8 C 28,3 C 0,0 km/h (0 Bft) 100,00 %
28.08.2016 19:14 28,1 C 68 % 1012,9 hPa 0,0 l/m 0,6 km/h (0 Bft) N-NO 12 0 min 0,000 mm 0,0 UV-I 38 W/m 21,6 C 28,1 C 1,6 km/h (1 Bft) 100,00 %
28.08.2016 19:16 28,0 C 68 % 1012,9 hPa 0,0 l/m 0,2 km/h (0 Bft) N-NO 12 0 min 0,000 mm 0,0 UV-I 34 W/m 21,5 C 28,0 C 1,6 km/h (1 Bft) 98,36 %
28.08.2016 19:18 27,7 C 70 % 1012,9 hPa 0,0 l/m 0,0 km/h (0 Bft) N-NO 12 0 min 0,000 mm 0,0 UV-I 31 W/m 21,7 C 27,7 C 0,0 km/h (0 Bft) 100,00 %
28.08.2016 19:20 27,4 C 70 % 1012,8 hPa 0,0 l/m 0,8 km/h (0 Bft) N-NO 12 0 min 0,000 mm 0,0 UV-I 27 W/m 21,4 C 27,4 C 1,6 km/h (1 Bft) 97,87 %
28.08.2016 19:22 27,2 C 71 % 1012,8 hPa 0,0 l/m 1,0 km/h (0 Bft) N-NO 12 0 min 0,000 mm 0,0 UV-I 26 W/m 21,5 C 27,2 C 1,6 km/h (1 Bft) 100,00 %
28.08.2016 19:24 26,9 C 71 % 1012,8 hPa 0,0 l/m 0,1 km/h (0 Bft) N-NO 12 0 min 0,000 mm 0,0 UV-I 24 W/m 21,2 C 26,9 C 1,6 km/h (1 Bft) 100,00 %
28.08.2016 19:26 26,8 C 71 % 1012,8 hPa 0,0 l/m 0,0 km/h (0 Bft) N-NO 12 0 min 0,000 mm 0,0 UV-I 22 W/m 21,1 C 26,8 C 0,0 km/h (0 Bft) 97,87 %
28.08.2016 19:28 26,8 C 69 % 1012,8 hPa 0,0 l/m 0,2 km/h (0 Bft) N-NO 12 0 min 0,000 mm 0,0 UV-I 20 W/m 20,6 C 26,8 C 1,6 km/h (1 Bft) 100,00 %
28.08.2016 19:30 26,8 C 68 % 1012,8 hPa 0,0 l/m 0,0 km/h (0 Bft) N-NO 12 0 min 0,000 mm 0,0 UV-I 18 W/m 20,4 C 26,8 C 0,0 km/h (0 Bft) 100,00 %
28.08.2016 19:32 26,9 C 69 % 1012,7 hPa 0,0 l/m 0,0 km/h (0 Bft) N-NO 12 0 min 0,000 mm 0,0 UV-I 16 W/m 20,7 C 26,9 C 0,0 km/h (0 Bft) 100,00 %
28.08.2016 19:34 27,0 C 70 % 1012,7 hPa 0,0 l/m 0,1 km/h (0 Bft) N-NO 12 0 min 0,000 mm 0,0 UV-I 13 W/m 21,0 C 27,0 C 1,6 km/h (1 Bft) 100,00 %
28.08.2016 19:36 26,9 C 71 % 1012,7 hPa 0,0 l/m 0,1 km/h (0 Bft) N-NO 12 0 min 0,000 mm 0,0 UV-I 12 W/m 21,2 C 26,9 C 1,6 km/h (1 Bft) 100,00 %
28.08.2016 19:38 26,7 C 72 % 1012,7 hPa 0,0 l/m 0,3 km/h (0 Bft) N-NO 12 0 min 0,000 mm 0,0 UV-I 11 W/m 21,2 C 26,7 C 1,6 km/h (1 Bft) 100,00 %
28.08.2016 19:40 26,6 C 73 % 1012,7 hPa 0,0 l/m 0,0 km/h (0 Bft) N-NO 12 0 min 0,000 mm 0,0 UV-I 10 W/m 21,3 C 26,6 C 0,0 km/h (0 Bft) 95,74 %
28.08.2016 19:42 26,4 C 73 % 1012,7 hPa 0,0 l/m 0,0 km/h (0 Bft) N-NO 12 0 min 0,000 mm 0,0 UV-I 9 W/m 21,2 C 26,4 C 0,0 km/h (0 Bft) 95,74 %
28.08.2016 19:44 26,3 C 72 % 1012,7 hPa 0,0 l/m 0,0 km/h (0 Bft) N-NO 12 0 min 0,000 mm 0,0 UV-I 8 W/m 20,8 C 26,3 C 0,0 km/h (0 Bft) 100,00 %
28.08.2016 19:46 26,1 C 73 % 1012,7 hPa 0,0 l/m 0,0 km/h (0 Bft) N-NO 12 0 min 0,000 mm 0,0 UV-I 7 W/m 20,9 C 26,1 C 0,0 km/h (0 Bft) 100,00 %
28.08.2016 19:48 26,0 C 74 % 1012,7 hPa 0,0 l/m 0,0 km/h (0 Bft) N-NO 12 0 min 0,000 mm 0,0 UV-I 5 W/m 21,0 C 26,0 C 0,0 km/h (0 Bft) 100,00 %
28.08.2016 19:50 25,9 C 75 % 1012,7 hPa 0,0 l/m 0,0 km/h (0 Bft) N-NO 12 0 min 0,000 mm 0,0 UV-I 5 W/m 21,1 C 25,9 C 0,0 km/h (0 Bft) 100,00 %
28.08.2016 19:52 25,8 C 76 % 1012,8 hPa 0,0 l/m 0,9 km/h (0 Bft) N-NO 12 0 min 0,000 mm 0,0 UV-I 5 W/m 21,2 C 25,8 C 1,6 km/h (1 Bft) 100,00 %
28.08.2016 19:54 25,8 C 77 % 1012,8 hPa 0,0 l/m 0,1 km/h (0 Bft) N-NO 12 0 min 0,000 mm 0,0 UV-I 2 W/m 21,4 C 25,8 C 1,6 km/h (1 Bft) 98,00 %
28.08.2016 19:56 25,7 C 77 % 1012,8 hPa 0,0 l/m 0,0 km/h (0 Bft) N-NO 12 0 min 0,000 mm 0,0 UV-I 0 W/m 21,4 C 25,7 C 0,0 km/h (0 Bft) 100,00 %
28.08.2016 19:58 25,6 C 77 % 1012,8 hPa 0,0 l/m 0,0 km/h (0 Bft) N-NO 12 0 min 0,000 mm 0,0 UV-I 0 W/m 21,3 C 25,6 C 0,0 km/h (0 Bft) 100,00 %
28.08.2016 20:00 25,3 C 77 % 1012,7 hPa 0,0 l/m 0,0 km/h (0 Bft) N-NO 12 0 min 0,026 mm 0,0 UV-I 0 W/m 21,0 C 25,3 C 1,6 km/h (1 Bft) 100,00 %
28.08.2016 20:02 25,3 C 77 % 1012,7 hPa 0,0 l/m 0,2 km/h (0 Bft) N-NO 12 0 min 0,000 mm 0,0 UV-I 0 W/m 21,0 C 25,3 C 1,6 km/h (1 Bft) 100,00 %
28.08.2016 20:04 25,2 C 77 % 1012,8 hPa 0,0 l/m 0,6 km/h (0 Bft) N-NO 12 0 min 0,000 mm 0,0 UV-I 0 W/m 20,9 C 25,2 C 1,6 km/h (1 Bft) 95,74 %
28.08.2016 20:06 25,2 C 76 % 1012,8 hPa 0,0 l/m 1,0 km/h (0 Bft) N-NO 12 0 min 0,000 mm 0,0 UV-I 0 W/m 20,7 C 25,2 C 1,6 km/h (1 Bft) 95,74 %
28.08.2016 20:08 25,2 C 76 % 1012,7 hPa 0,0 l/m 1,0 km/h (0 Bft) N-NO 12 0 min 0,000 mm 0,0 UV-I 0 W/m 20,7 C 25,2 C 3,2 km/h (1 Bft) 95,74 %
28.08.2016 20:10 25,2 C 77 % 1012,7 hPa 0,0 l/m 2,5 km/h (1 Bft) N-NO 12 0 min 0,000 mm 0,0 UV-I 0 W/m 20,9 C 25,2 C 3,2 km/h (1 Bft) 95,74 %
28.08.2016 20:12 24,9 C 77 % 1012,7 hPa 0,0 l/m 2,4 km/h (1 Bft) N-NO 13 0 min 0,000 mm 0,0 UV-I 0 W/m 20,6 C 24,9 C 3,2 km/h (1 Bft) 97,87 %
28.08.2016 20:14 24,8 C 78 % 1012,8 hPa 0,0 l/m 1,0 km/h (0 Bft) N-NO 13 0 min 0,000 mm 0,0 UV-I 0 W/m 20,7 C 24,8 C 1,6 km/h (1 Bft) 97,87 %
28.08.2016 20:16 24,6 C 79 % 1012,8 hPa 0,0 l/m 0,3 km/h (0 Bft) N-NO 13 0 min 0,000 mm 0,0 UV-I 0 W/m 20,7 C 24,6 C 1,6 km/h (1 Bft) 95,74 %
28.08.2016 20:18 24,5 C 79 % 1012,9 hPa 0,0 l/m 0,8 km/h (0 Bft) N-NO 13 0 min 0,000 mm 0,0 UV-I 0 W/m 20,6 C 24,5 C 3,2 km/h (1 Bft) 97,87 %
28.08.2016 20:20 24,4 C 79 % 1012,9 hPa 0,0 l/m 0,0 km/h (0 Bft) N-NO 13 0 min 0,000 mm 0,0 UV-I 0 W/m 20,5 C 24,4 C 0,0 km/h (0 Bft) 93,62 %
28.08.2016 20:22 24,4 C 79 % 1013,0 hPa 0,0 l/m 0,4 km/h (0 Bft) N-NO 13 0 min 0,000 mm 0,0 UV-I 0 W/m 20,5 C 24,4 C 1,6 km/h (1 Bft) 93,62 %
28.08.2016 20:24 24,4 C 79 % 1013,0 hPa 0,0 l/m 2,3 km/h (1 Bft) N-NO 13 0 min 0,000 mm 0,0 UV-I 0 W/m 20,5 C 24,4 C 3,2 km/h (1 Bft) 97,87 %
28.08.2016 20:26 24,3 C 80 % 1013,0 hPa 0,0 l/m 2,5 km/h (1 Bft) N-NO 13 0 min 0,000 mm 0,0 UV-I 0 W/m 20,6 C 24,3 C 3,2 km/h (1 Bft) 95,74 %
28.08.2016 20:28 24,3 C 80 % 1012,9 hPa 0,0 l/m 2,7 km/h (1 Bft) N-NO 13 0 min 0,000 mm 0,0 UV-I 0 W/m 20,6 C 24,3 C 3,2 km/h (1 Bft) 95,74 %
28.08.2016 20:30 24,1 C 81 % 1012,9 hPa 0,0 l/m 2,1 km/h (1 Bft) N-NO 13 0 min 0,000 mm 0,0 UV-I 0 W/m 20,6 C 24,1 C 3,2 km/h (1 Bft) 97,30 %
28.08.2016 20:32 23,9 C 81 % 1013,0 hPa 0,0 l/m 1,0 km/h (0 Bft) N-NO 13 0 min 0,000 mm 0,0 UV-I 0 W/m 20,4 C 23,9 C 1,6 km/h (1 Bft) 97,92 %
28.08.2016 20:34 23,8 C 81 % 1013,0 hPa 0,0 l/m 1,6 km/h (1 Bft) N-NO 13 0 min 0,000 mm 0,0 UV-I 0 W/m 20,3 C 23,8 C 3,2 km/h (1 Bft) 97,87 %
28.08.2016 20:36 23,8 C 81 % 1013,0 hPa 0,0 l/m 0,7 km/h (0 Bft) N-NO 13 0 min 0,000 mm 0,0 UV-I 0 W/m 20,3 C 23,8 C 1,6 km/h (1 Bft) 97,87 %
28.08.2016 20:38 23,8 C 81 % 1013,0 hPa 0,0 l/m 0,4 km/h (0 Bft) N-NO 13 0 min 0,000 mm 0,0 UV-I 0 W/m 20,3 C 23,8 C 1,6 km/h (1 Bft) 100,00 %
28.08.2016 20:40 23,8 C 81 % 1013,1 hPa 0,0 l/m 1,5 km/h (1 Bft) N-NO 13 0 min 0,000 mm 0,0 UV-I 0 W/m 20,3 C 23,8 C 3,2 km/h (1 Bft) 100,00 %
28.08.2016 20:42 23,8 C 81 % 1013,1 hPa 0,0 l/m 2,4 km/h (1 Bft) N-NO 13 0 min 0,000 mm 0,0 UV-I 0 W/m 20,3 C 23,8 C 3,2 km/h (1 Bft) 100,00 %
28.08.2016 20:44 23,8 C 80 % 1013,1 hPa 0,0 l/m 1,2 km/h (1 Bft) N-NO 13 0 min 0,000 mm 0,0 UV-I 0 W/m 20,1 C 23,8 C 3,2 km/h (1 Bft) 100,00 %
28.08.2016 20:46 23,8 C 80 % 1013,2 hPa 0,0 l/m 0,1 km/h (0 Bft) N-NO 13 0 min 0,000 mm 0,0 UV-I 0 W/m 20,1 C 23,8 C 1,6 km/h (1 Bft) 100,00 %
28.08.2016 20:48 23,7 C 81 % 1013,1 hPa 0,0 l/m 0,4 km/h (0 Bft) N-NO 13 0 min 0,000 mm 0,0 UV-I 0 W/m 20,2 C 23,7 C 1,6 km/h (1 Bft) 100,00 %
28.08.2016 20:50 23,7 C 82 % 1013,1 hPa 0,0 l/m 0,4 km/h (0 Bft) N-NO 13 0 min 0,000 mm 0,0 UV-I 0 W/m 20,4 C 23,7 C 1,6 km/h (1 Bft) 95,74 %
28.08.2016 20:52 23,7 C 82 % 1013,2 hPa 0,0 l/m 1,2 km/h (1 Bft) N-NO 13 0 min 0,000 mm 0,0 UV-I 0 W/m 20,4 C 23,7 C 3,2 km/h (1 Bft) 100,00 %
28.08.2016 20:54 23,7 C 82 % 1013,2 hPa 0,0 l/m 0,8 km/h (0 Bft) N-NO 13 0 min 0,000 mm 0,0 UV-I 0 W/m 20,4 C 23,7 C 1,6 km/h (1 Bft) 95,74 %
28.08.2016 20:56 23,7 C 82 % 1013,2 hPa 0,0 l/m 1,0 km/h (0 Bft) N-NO 13 0 min 0,000 mm 0,0 UV-I 0 W/m 20,4 C 23,7 C 1,6 km/h (1 Bft) 96,00 %
28.08.2016 20:58 23,6 C 82 % 1013,2 hPa 0,0 l/m 1,7 km/h (1 Bft) N-NO 13 0 min 0,000 mm 0,0 UV-I 0 W/m 20,3 C 23,6 C 3,2 km/h (1 Bft) 97,87 %
28.08.2016 21:00 23,6 C 82 % 1013,2 hPa 0,0 l/m 1,3 km/h (1 Bft) N-NO 13 0 min 0,000 mm 0,0 UV-I 0 W/m 20,3 C 23,6 C 3,2 km/h (1 Bft) 100,00 %
28.08.2016 21:02 23,6 C 82 % 1013,3 hPa 0,0 l/m 0,0 km/h (0 Bft) N-NO 13 0 min 0,000 mm 0,0 UV-I 0 W/m 20,3 C 23,6 C 0,0 km/h (0 Bft) 100,00 %
28.08.2016 21:04 23,6 C 82 % 1013,3 hPa 0,0 l/m 0,0 km/h (0 Bft) N-NO 13 0 min 0,000 mm 0,0 UV-I 0 W/m 20,3 C 23,6 C 0,0 km/h (0 Bft) 97,87 %
28.08.2016 21:06 23,4 C 82 % 1013,3 hPa 0,0 l/m 0,5 km/h (0 Bft) N-NO 13 0 min 0,000 mm 0,0 UV-I 0 W/m 20,1 C 23,4 C 1,6 km/h (1 Bft) 100,00 %
28.08.2016 21:08 23,4 C 83 % 1013,3 hPa 0,0 l/m 1,7 km/h (1 Bft) N-NO 13 0 min 0,000 mm 0,0 UV-I 0 W/m 20,3 C 23,4 C 3,2 km/h (1 Bft) 97,37 %
28.08.2016 21:10 23,4 C 83 % 1013,3 hPa 0,0 l/m 1,9 km/h (1 Bft) N-NO 13 0 min 0,000 mm 0,0 UV-I 0 W/m 20,3 C 23,4 C 3,2 km/h (1 Bft) 100,00 %
28.08.2016 21:12 23,4 C 83 % 1013,3 hPa 0,0 l/m 2,8 km/h (1 Bft) NW 304 0 min 0,000 mm 0,0 UV-I 0 W/m 20,3 C 23,4 C 4,8 km/h (1 Bft) 100,00 %
28.08.2016 21:14 23,4 C 84 % 1013,4 hPa 0,0 l/m 4,3 km/h (1 Bft) W-NW 298 0 min 0,000 mm 0,0 UV-I 0 W/m 20,5 C 23,4 C 6,4 km/h (2 Bft) 100,00 %
28.08.2016 21:16 23,3 C 83 % 1013,4 hPa 0,0 l/m 4,1 km/h (1 Bft) W-NW 296 0 min 0,000 mm 0,0 UV-I 0 W/m 20,2 C 23,3 C 4,8 km/h (1 Bft) 100,00 %
28.08.2016 21:18 23,2 C 83 % 1013,4 hPa 0,0 l/m 3,5 km/h (1 Bft) W-SW 250 0 min 0,000 mm 0,0 UV-I 0 W/m 20,1 C 23,2 C 4,8 km/h (1 Bft) 100,00 %
28.08.2016 21:20 23,1 C 83 % 1013,4 hPa 0,0 l/m 1,5 km/h (1 Bft) W-SW 248 0 min 0,000 mm 0,0 UV-I 0 W/m 20,0 C 23,1 C 3,2 km/h (1 Bft) 100,00 %
28.08.2016 21:22 23,1 C 83 % 1013,4 hPa 0,0 l/m 1,2 km/h (1 Bft) W-SW 248 0 min 0,000 mm 0,0 UV-I 0 W/m 20,0 C 23,1 C 3,2 km/h (1 Bft) 95,74 %
28.08.2016 21:24 23,0 C 83 % 1013,4 hPa 0,0 l/m 1,0 km/h (0 Bft) W-SW 248 0 min 0,000 mm 0,0 UV-I 0 W/m 20,0 C 23,0 C 3,2 km/h (1 Bft) 97,87 %
28.08.2016 21:26 22,9 C 83 % 1013,4 hPa 0,0 l/m 1,2 km/h (1 Bft) W-SW 238 0 min 0,000 mm 0,0 UV-I 0 W/m 19,9 C 22,9 C 1,6 km/h (1 Bft) 97,87 %
28.08.2016 21:28 23,1 C 82 % 1013,5 hPa 0,0 l/m 1,3 km/h (1 Bft) SW 232 0 min 0,000 mm 0,0 UV-I 0 W/m 19,9 C 23,1 C 3,2 km/h (1 Bft) 100,00 %
28.08.2016 21:30 23,1 C 82 % 1013,5 hPa 0,0 l/m 1,1 km/h (1 Bft) SW 232 0 min 0,000 mm 0,0 UV-I 0 W/m 19,9 C 23,1 C 1,6 km/h (1 Bft) 100,00 %
28.08.2016 21:32 23,2 C 82 % 1013,5 hPa 0,0 l/m 0,8 km/h (0 Bft) SW 232 0 min 0,000 mm 0,0 UV-I 0 W/m 19,9 C 23,2 C 1,6 km/h (1 Bft) 100,00 %
28.08.2016 21:34 23,2 C 82 % 1013,5 hPa 0,0 l/m 1,1 km/h (1 Bft) SW 232 0 min 0,000 mm 0,0 UV-I 0 W/m 19,9 C 23,2 C 3,2 km/h (1 Bft) 100,00 %
28.08.2016 21:36 23,2 C 82 % 1013,5 hPa 0,0 l/m 1,4 km/h (1 Bft) SW 232 0 min 0,000 mm 0,0 UV-I 0 W/m 19,9 C 23,2 C 3,2 km/h (1 Bft) 100,00 %
28.08.2016 21:38 23,2 C 82 % 1013,5 hPa 0,0 l/m 1,3 km/h (1 Bft) SW 227 0 min 0,000 mm 0,0 UV-I 0 W/m 19,9 C 23,2 C 3,2 km/h (1 Bft) 97,87 %
28.08.2016 21:40 23,2 C 82 % 1013,6 hPa 0,0 l/m 0,9 km/h (0 Bft) SW 227 0 min 0,000 mm 0,0 UV-I 0 W/m 19,9 C 23,2 C 1,6 km/h (1 Bft) 100,00 %
28.08.2016 21:42 23,1 C 82 % 1013,6 hPa 0,0 l/m 1,4 km/h (1 Bft) SW 215 0 min 0,000 mm 0,0 UV-I 0 W/m 19,9 C 23,1 C 3,2 km/h (1 Bft) 100,00 %
28.08.2016 21:44 23,1 C 82 % 1013,6 hPa 0,0 l/m 2,1 km/h (1 Bft) S-SW 205 0 min 0,000 mm 0,0 UV-I 0 W/m 19,9 C 23,1 C 3,2 km/h (1 Bft) 97,87 %
28.08.2016 21:46 23,1 C 82 % 1013,6 hPa 0,0 l/m 2,8 km/h (1 Bft) S-SW 205 0 min 0,000 mm 0,0 UV-I 0 W/m 19,9 C 23,1 C 4,8 km/h (1 Bft) 100,00 %
28.08.2016 21:48 23,0 C 82 % 1013,6 hPa 0,0 l/m 3,8 km/h (1 Bft) S-SW 202 0 min 0,000 mm 0,0 UV-I 0 W/m 19,8 C 23,0 C 4,8 km/h (1 Bft) 97,87 %
28.08.2016 21:50 22,9 C 83 % 1013,6 hPa 0,0 l/m 5,0 km/h (1 Bft) S 183 0 min 0,000 mm 0,0 UV-I 0 W/m 19,9 C 22,9 C 6,4 km/h (2 Bft) 97,87 %
28.08.2016 21:52 22,9 C 83 % 1013,6 hPa 0,0 l/m 4,8 km/h (1 Bft) S-SW 194 0 min 0,000 mm 0,0 UV-I 0 W/m 19,9 C 22,9 C 6,4 km/h (2 Bft) 98,00 %
28.08.2016 21:54 22,9 C 83 % 1013,6 hPa 0,0 l/m 4,6 km/h (1 Bft) S 185 0 min 0,000 mm 0,0 UV-I 0 W/m 19,9 C 22,9 C 6,4 km/h (2 Bft) 95,74 %
28.08.2016 21:56 22,9 C 83 % 1013,6 hPa 0,0 l/m 4,7 km/h (1 Bft) S 182 0 min 0,000 mm 0,0 UV-I 0 W/m 19,9 C 22,9 C 6,4 km/h (2 Bft) 97,92 %
28.08.2016 21:58 22,9 C 83 % 1013,5 hPa 0,0 l/m 4,8 km/h (1 Bft) S 184 0 min 0,000 mm 0,0 UV-I 0 W/m 19,9 C 22,9 C 6,4 km/h (2 Bft) 100,00 %
28.08.2016 22:00 22,9 C 83 % 1013,5 hPa 0,0 l/m 4,0 km/h (1 Bft) S 180 0 min 0,000 mm 0,0 UV-I 0 W/m 19,9 C 22,9 C 4,8 km/h (1 Bft) 100,00 %
28.08.2016 22:02 22,9 C 83 % 1013,4 hPa 0,0 l/m 4,3 km/h (1 Bft) S 179 0 min 0,000 mm 0,0 UV-I 0 W/m 19,9 C 22,9 C 4,8 km/h (1 Bft) 100,00 %
28.08.2016 22:04 22,9 C 83 % 1013,5 hPa 0,0 l/m 3,7 km/h (1 Bft) S 179 0 min 0,000 mm 0,0 UV-I 0 W/m 19,9 C 22,9 C 4,8 km/h (1 Bft) 95,74 %
28.08.2016 22:06 22,9 C 83 % 1013,5 hPa 0,0 l/m 4,5 km/h (1 Bft) S 178 0 min 0,000 mm 0,0 UV-I 0 W/m 19,9 C 22,9 C 6,4 km/h (2 Bft) 97,87 %
28.08.2016 22:08 22,9 C 83 % 1013,5 hPa 0,0 l/m 3,2 km/h (1 Bft) S 182 0 min 0,000 mm 0,0 UV-I 0 W/m 19,9 C 22,9 C 4,8 km/h (1 Bft) 96,00 %
28.08.2016 22:10 22,9 C 83 % 1013,5 hPa 0,0 l/m 4,9 km/h (1 Bft) S 184 0 min 0,000 mm 0,0 UV-I 0 W/m 19,9 C 22,9 C 6,4 km/h (2 Bft) 97,87 %
28.08.2016 22:12 22,8 C 83 % 1013,5 hPa 0,0 l/m 4,4 km/h (1 Bft) S 185 0 min 0,000 mm 0,0 UV-I 0 W/m 19,8 C 22,8 C 6,4 km/h (2 Bft) 97,87 %
28.08.2016 22:14 22,7 C 84 % 1013,5 hPa 0,0 l/m 3,5 km/h (1 Bft) S-SW 193 0 min 0,000 mm 0,0 UV-I 0 W/m 19,9 C 22,7 C 4,8 km/h (1 Bft) 97,87 %
28.08.2016 22:16 22,6 C 84 % 1013,5 hPa 0,0 l/m 5,8 km/h (2 Bft) SW 228 0 min 0,000 mm 0,0 UV-I 0 W/m 19,8 C 22,6 C 8,0 km/h (2 Bft) 97,87 %
28.08.2016 22:18 22,6 C 85 % 1013,5 hPa 0,0 l/m 3,9 km/h (1 Bft) SW 228 0 min 0,000 mm 0,0 UV-I 0 W/m 19,9 C 22,6 C 6,4 km/h (2 Bft) 97,87 %
28.08.2016 22:20 22,4 C 85 % 1013,5 hPa 0,0 l/m 4,1 km/h (1 Bft) SW 220 0 min 0,000 mm 0,0 UV-I 0 W/m 19,7 C 22,4 C 6,4 km/h (2 Bft) 97,87 %
28.08.2016 22:22 22,4 C 85 % 1013,4 hPa 0,0 l/m 3,7 km/h (1 Bft) S-SW 198 0 min 0,000 mm 0,0 UV-I 0 W/m 19,7 C 22,4 C 4,8 km/h (1 Bft) 97,87 %
28.08.2016 22:24 22,4 C 85 % 1013,5 hPa 0,0 l/m 3,8 km/h (1 Bft) S-SW 197 0 min 0,000 mm 0,0 UV-I 0 W/m 19,7 C 22,4 C 6,4 km/h (2 Bft) 95,74 %
28.08.2016 22:26 22,3 C 85 % 1013,6 hPa 0,0 l/m 4,7 km/h (1 Bft) S-SW 197 0 min 0,000 mm 0,0 UV-I 0 W/m 19,7 C 22,3 C 6,4 km/h (2 Bft) 95,74 %
28.08.2016 22:28 22,3 C 85 % 1013,6 hPa 0,0 l/m 4,0 km/h (1 Bft) S-SW 200 0 min 0,000 mm 0,0 UV-I 0 W/m 19,7 C 22,3 C 6,4 km/h (2 Bft) 91,49 %
28.08.2016 22:30 22,3 C 85 % 1013,6 hPa 0,0 l/m 3,5 km/h (1 Bft) S-SW 200 0 min 0,000 mm 0,0 UV-I 0 W/m 19,7 C 22,3 C 4,8 km/h (1 Bft) 95,74 %
28.08.2016 22:32 22,4 C 84 % 1013,6 hPa 0,0 l/m 3,6 km/h (1 Bft) S-SW 196 0 min 0,000 mm 0,0 UV-I 0 W/m 19,6 C 22,4 C 4,8 km/h (1 Bft) 95,74 %
28.08.2016 22:34 22,4 C 84 % 1013,6 hPa 0,0 l/m 3,0 km/h (1 Bft) S-SW 196 0 min 0,000 mm 0,0 UV-I 0 W/m 19,6 C 22,4 C 4,8 km/h (1 Bft) 97,92 %
28.08.2016 22:36 22,4 C 84 % 1013,6 hPa 0,0 l/m 3,4 km/h (1 Bft) S-SW 194 0 min 0,000 mm 0,0 UV-I 0 W/m 19,6 C 22,4 C 4,8 km/h (1 Bft) 97,87 %
28.08.2016 22:38 22,3 C 84 % 1013,5 hPa 0,0 l/m 2,5 km/h (1 Bft) S-SW 194 0 min 0,000 mm 0,0 UV-I 0 W/m 19,5 C 22,3 C 4,8 km/h (1 Bft) 100,00 %
28.08.2016 22:40 22,3 C 84 % 1013,6 hPa 0,0 l/m 3,0 km/h (1 Bft) S-SW 193 0 min 0,000 mm 0,0 UV-I 0 W/m 19,5 C 22,3 C 4,8 km/h (1 Bft) 100,00 %
28.08.2016 22:42 22,3 C 83 % 1013,5 hPa 0,0 l/m 3,0 km/h (1 Bft) S 190 0 min 0,000 mm 0,0 UV-I 0 W/m 19,3 C 22,3 C 6,4 km/h (2 Bft) 100,00 %
28.08.2016 22:44 22,3 C 83 % 1013,5 hPa 0,0 l/m 4,3 km/h (1 Bft) S 179 0 min 0,000 mm 0,0 UV-I 0 W/m 19,3 C 22,3 C 8,0 km/h (2 Bft) 100,00 %
28.08.2016 22:46 22,4 C 83 % 1013,6 hPa 0,0 l/m 5,5 km/h (1 Bft) S 177 0 min 0,000 mm 0,0 UV-I 0 W/m 19,4 C 22,4 C 8,0 km/h (2 Bft) 100,00 %
28.08.2016 22:48 22,4 C 82 % 1013,5 hPa 0,0 l/m 6,3 km/h (2 Bft) S-SW 196 0 min 0,000 mm 0,0 UV-I 0 W/m 19,2 C 22,4 C 9,7 km/h (2 Bft) 100,00 %
28.08.2016 22:50 22,4 C 82 % 1013,5 hPa 0,0 l/m 4,6 km/h (1 Bft) S 184 0 min 0,000 mm 0,0 UV-I 0 W/m 19,2 C 22,4 C 6,4 km/h (2 Bft) 100,00 %
28.08.2016 22:52 22,4 C 82 % 1013,5 hPa 0,0 l/m 4,0 km/h (1 Bft) S 183 0 min 0,000 mm 0,0 UV-I 0 W/m 19,2 C 22,4 C 6,4 km/h (2 Bft) 100,00 %
28.08.2016 22:54 22,4 C 82 % 1013,5 hPa 0,0 l/m 4,0 km/h (1 Bft) S 183 0 min 0,000 mm 0,0 UV-I 0 W/m 19,2 C 22,4 C 6,4 km/h (2 Bft) 100,00 %
28.08.2016 22:56 22,3 C 82 % 1013,5 hPa 0,0 l/m 3,6 km/h (1 Bft) S 183 0 min 0,000 mm 0,0 UV-I 0 W/m 19,1 C 22,3 C 4,8 km/h (1 Bft) 100,00 %
28.08.2016 22:58 22,3 C 82 % 1013,6 hPa 0,0 l/m 4,1 km/h (1 Bft) S 188 0 min 0,000 mm 0,0 UV-I 0 W/m 19,1 C 22,3 C 6,4 km/h (2 Bft) 100,00 %
28.08.2016 23:00 22,3 C 82 % 1013,6 hPa 0,0 l/m 4,0 km/h (1 Bft) S 187 0 min 0,000 mm 0,0 UV-I 0 W/m 19,1 C 22,3 C 6,4 km/h (2 Bft) 95,74 %
28.08.2016 23:02 22,3 C 82 % 1013,6 hPa 0,0 l/m 4,1 km/h (1 Bft) S 188 0 min 0,025 mm 0,0 UV-I 0 W/m 19,1 C 22,3 C 6,4 km/h (2 Bft) 100,00 %
28.08.2016 23:04 22,3 C 82 % 1013,7 hPa 0,0 l/m 4,1 km/h (1 Bft) S 185 0 min 0,000 mm 0,0 UV-I 0 W/m 19,1 C 22,3 C 6,4 km/h (2 Bft) 100,00 %
28.08.2016 23:06 22,2 C 82 % 1013,8 hPa 0,0 l/m 4,0 km/h (1 Bft) S 185 0 min 0,000 mm 0,0 UV-I 0 W/m 19,0 C 22,2 C 6,4 km/h (2 Bft) 97,37 %
28.08.2016 23:08 22,2 C 82 % 1013,8 hPa 0,0 l/m 3,4 km/h (1 Bft) S 183 0 min 0,000 mm 0,0 UV-I 0 W/m 19,0 C 22,2 C 4,8 km/h (1 Bft) 100,00 %
28.08.2016 23:10 22,2 C 82 % 1013,8 hPa 0,0 l/m 4,9 km/h (1 Bft) S 187 0 min 0,000 mm 0,0 UV-I 0 W/m 19,0 C 22,2 C 8,0 km/h (2 Bft) 95,74 %
28.08.2016 23:12 22,2 C 81 % 1013,9 hPa 0,0 l/m 5,6 km/h (1 Bft) S 178 0 min 0,000 mm 0,0 UV-I 0 W/m 18,8 C 22,2 C 8,0 km/h (2 Bft) 100,00 %
28.08.2016 23:14 22,2 C 81 % 1013,9 hPa 0,0 l/m 7,2 km/h (2 Bft) S 186 0 min 0,000 mm 0,0 UV-I 0 W/m 18,8 C 21,9 C 11,3 km/h (2 Bft) 100,00 %
28.08.2016 23:16 22,3 C 81 % 1013,9 hPa 0,0 l/m 8,3 km/h (2 Bft) S-SW 192 0 min 0,000 mm 0,0 UV-I 0 W/m 18,9 C 21,7 C 11,3 km/h (2 Bft) 100,00 %
28.08.2016 23:18 22,3 C 81 % 1014,0 hPa 0,0 l/m 8,0 km/h (2 Bft) S 169 0 min 0,000 mm 0,0 UV-I 0 W/m 18,9 C 21,8 C 11,3 km/h (2 Bft) 100,00 %
28.08.2016 23:20 22,3 C 81 % 1014,1 hPa 0,0 l/m 7,5 km/h (2 Bft) S 189 0 min 0,000 mm 0,0 UV-I 0 W/m 18,9 C 21,9 C 11,3 km/h (2 Bft) 100,00 %
28.08.2016 23:22 22,3 C 81 % 1014,1 hPa 0,0 l/m 8,6 km/h (2 Bft) S 170 0 min 0,000 mm 0,0 UV-I 0 W/m 18,9 C 21,6 C 14,5 km/h (3 Bft) 100,00 %
28.08.2016 23:24 22,4 C 80 % 1014,1 hPa 0,0 l/m 9,8 km/h (2 Bft) S-SO 164 0 min 0,000 mm 0,0 UV-I 0 W/m 18,8 C 21,3 C 12,9 km/h (3 Bft) 98,00 %
28.08.2016 23:26 22,4 C 80 % 1014,1 hPa 0,0 l/m 7,8 km/h (2 Bft) S-SW 211 0 min 0,000 mm 0,0 UV-I 0 W/m 18,8 C 21,9 C 11,3 km/h (2 Bft) 100,00 %
28.08.2016 23:28 22,4 C 80 % 1014,1 hPa 0,0 l/m 6,2 km/h (2 Bft) S-SW 205 0 min 0,000 mm 0,0 UV-I 0 W/m 18,8 C 22,4 C 9,7 km/h (2 Bft) 97,87 %
28.08.2016 23:30 22,4 C 80 % 1014,1 hPa 0,0 l/m 6,2 km/h (2 Bft) S-SW 194 0 min 0,000 mm 0,0 UV-I 0 W/m 18,8 C 22,4 C 9,7 km/h (2 Bft) 97,87 %
28.08.2016 23:32 22,4 C 80 % 1014,0 hPa 0,0 l/m 4,8 km/h (1 Bft) S-SW 198 0 min 0,000 mm 0,0 UV-I 0 W/m 18,8 C 22,4 C 9,7 km/h (2 Bft) 100,00 %
28.08.2016 23:34 22,3 C 80 % 1014,0 hPa 0,0 l/m 4,4 km/h (1 Bft) S-SW 208 0 min 0,000 mm 0,0 UV-I 0 W/m 18,7 C 22,3 C 6,4 km/h (2 Bft) 100,00 %
28.08.2016 23:36 22,3 C 81 % 1014,1 hPa 0,0 l/m 4,4 km/h (1 Bft) S-SW 209 0 min 0,000 mm 0,0 UV-I 0 W/m 18,9 C 22,3 C 6,4 km/h (2 Bft) 100,00 %
28.08.2016 23:38 22,2 C 81 % 1014,1 hPa 0,0 l/m 4,6 km/h (1 Bft) S-SW 208 0 min 0,000 mm 0,0 UV-I 0 W/m 18,8 C 22,2 C 6,4 km/h (2 Bft) 100,00 %
28.08.2016 23:40 22,1 C 82 % 1014,2 hPa 0,0 l/m 4,9 km/h (1 Bft) S-SW 208 0 min 0,000 mm 0,0 UV-I 0 W/m 18,9 C 22,1 C 6,4 km/h (2 Bft) 100,00 %
28.08.2016 23:42 21,9 C 82 % 1014,2 hPa 0,0 l/m 6,7 km/h (2 Bft) S-SW 212 0 min 0,000 mm 0,0 UV-I 0 W/m 18,7 C 21,8 C 9,7 km/h (2 Bft) 100,00 %
28.08.2016 23:44 21,8 C 82 % 1014,2 hPa 0,0 l/m 7,3 km/h (2 Bft) S-SW 205 0 min 0,000 mm 0,0 UV-I 0 W/m 18,6 C 21,5 C 9,7 km/h (2 Bft) 100,00 %
28.08.2016 23:46 21,8 C 82 % 1014,2 hPa 0,0 l/m 5,5 km/h (1 Bft) S 188 0 min 0,000 mm 0,0 UV-I 0 W/m 18,6 C 21,8 C 8,0 km/h (2 Bft) 97,87 %
28.08.2016 23:48 21,8 C 82 % 1014,2 hPa 0,0 l/m 3,9 km/h (1 Bft) S-SW 204 0 min 0,000 mm 0,0 UV-I 0 W/m 18,6 C 21,8 C 4,8 km/h (1 Bft) 100,00 %
28.08.2016 23:50 21,8 C 82 % 1014,1 hPa 0,0 l/m 4,1 km/h (1 Bft) S-SW 204 0 min 0,000 mm 0,0 UV-I 0 W/m 18,6 C 21,8 C 4,8 km/h (1 Bft) 100,00 %
28.08.2016 23:52 21,8 C 82 % 1014,1 hPa 0,0 l/m 3,6 km/h (1 Bft) S-SW 204 0 min 0,000 mm 0,0 UV-I 0 W/m 18,6 C 21,8 C 4,8 km/h (1 Bft) 100,00 %
28.08.2016 23:54 21,8 C 82 % 1014,1 hPa 0,0 l/m 4,2 km/h (1 Bft) S-SW 204 0 min 0,000 mm 0,0 UV-I 0 W/m 18,6 C 21,8 C 6,4 km/h (2 Bft) 95,74 %
28.08.2016 23:56 21,8 C 82 % 1014,2 hPa 0,0 l/m 4,4 km/h (1 Bft) S 181 0 min 0,000 mm 0,0 UV-I 0 W/m 18,6 C 21,8 C 6,4 km/h (2 Bft) 100,00 %
28.08.2016 23:58 21,8 C 82 % 1014,1 hPa 0,0 l/m 6,0 km/h (2 Bft) S 170 0 min 0,000 mm 0,0 UV-I 0 W/m 18,6 C 21,8 C 9,7 km/h (2 Bft) 100,00 %
_ Min-Zeit 06:24 16:56 19:32 - 00:24 - - - - - - 06:24 06:24 00:24 07:24
Minimum _ 15,4 C 50 % 1012,7 hPa - 0,0 km/h (0 Bft) - - - - - - 14,8 C 15,4 C 0,0 km/h (0 Bft) 91,49 %
_ Max-Zeit 16:50 06:36 10:12 00:00 14:16 - - 06:28 13:02 12:46 13:04 19:10 16:20 14:16 00:00
Maximum _ 31,0 C 97 % 1016,4 hPa 0,0 l/m 10,2 km/h
W (2 Bft)
- - 2 min 0,483 mm 5,1 UV-I 736 W/m 21,9 C 30,9 C 17,7 km/h
SW (3 Bft)
100,00 %
Durchschnitt _ 22,8 C 78 % 1014,7 hPa #0,0 l/m 2,0 km/h (1 Bft) S - #10:32 h #3,759 mm 3,0 UV-I 406 W/m 18,4 C 22,8 C 4,0 km/h (1 Bft) 98,51 %